M I D A S
Marine Information and Data Acquisition System
Tripno 2246 of the Zeeleeuw from 2011-11-23 07:52:18 to 2011-11-23 15:39:22
Back to CruiseResearch ActivitiesStationsMapUnderway DataData graphs

EquipmentUnitsComment
TimeDGPSUTC
LatitudeDGPSDM.mWGS84
LongitudeDGPSDM.mWGS84
TemperatureSBE03/SBE38deg celciusITS90
ConductivitySBE21S/mITS90
SalinitySBE21 Practical Salinity Units
ChlorophylAChelsea fluorimeterg/lCalibrated in Aceton
Missing or incorrect values are displayed as -999
Sea surface data collected by the RV Zeeleeuw from 2011-11-23 07:42:10 to 2011-11-23 15:48:23
                                                                                    Next 1000 lines
Time Latitude Longitude Temperature Conductivity Salinity ChlorophylA
2011-11-23 07:42:20 51°13.636 2°56.02 16.2126 0.05844 0.299809 -3.020363
2011-11-23 07:42:25 51°13.636 2°56.02 16.2122 0.058543 0.300345 -3.020363
2011-11-23 07:42:30 51°13.636 2°56.02 16.2131 0.058543 0.300345 -3.020363
2011-11-23 07:42:36 51°13.636 2°56.02 16.2128 0.058543 0.30035 -3.020363
2011-11-23 07:42:40 51°13.636 2°56.02 16.2122 0.058543 0.30035 -3.020363
2011-11-23 07:42:46 51°13.636 2°56.02 16.2135 0.058543 0.30035 -3.020363
2011-11-23 07:42:51 51°13.636 2°56.02 16.2156 0.058543 0.30035 -3.020363
2011-11-23 07:42:56 51°13.636 2°56.02 16.2168 0.05844 0.299809 -3.020363
2011-11-23 07:43:01 51°13.636 2°56.02 16.2169 0.05844 0.299809 -3.020363
2011-11-23 07:43:06 51°13.636 2°56.02 16.218 0.058543 0.30035 -3.020363
2011-11-23 07:43:11 51°13.636 2°56.02 16.2182 0.05844 0.299809 -3.020363
2011-11-23 07:43:16 51°13.636 2°56.02 16.22 0.058543 0.30035 -3.020363
2011-11-23 07:43:21 51°13.636 2°56.02 16.2213 0.058543 0.300355 -3.020363
2011-11-23 07:43:26 51°13.636 2°56.02 16.2221 0.058543 0.30035 -3.020363
2011-11-23 07:43:31 51°13.636 2°56.02 16.2187 0.058543 0.30035 -3.020363
2011-11-23 07:43:36 51°13.636 2°56.02 16.2152 0.058543 0.300355 -3.020363
2011-11-23 07:43:41 51°13.636 2°56.02 16.2146 0.058543 0.300355 -3.020363
2011-11-23 07:43:46 51°13.636 2°56.02 16.2165 0.058543 0.300355 -3.020363
2011-11-23 07:43:51 51°13.636 2°56.02 16.2149 0.05844 0.299814 -3.020363
2011-11-23 07:43:56 51°13.636 2°56.02 16.2165 0.05844 0.299814 -3.020363
2011-11-23 07:44:01 51°13.636 2°56.02 16.2161 0.05844 0.299814 -3.020363
2011-11-23 07:44:06 51°13.636 2°56.02 16.2163 0.05844 0.299814 -3.020363
2011-11-23 07:44:11 51°13.636 2°56.02 16.2183 0.05844 0.299814 -3.020363
2011-11-23 07:44:16 51°13.636 2°56.02 16.219 0.05844 0.299814 -3.020363
2011-11-23 07:44:21 51°13.636 2°56.02 16.2202 0.058543 0.300355 -3.020363
2011-11-23 07:44:26 51°13.637 2°56.02 16.2205 0.05844 0.299814 -3.020363
2011-11-23 07:44:31 51°13.637 2°56.02 16.2221 0.05844 0.299814 -3.020363
2011-11-23 07:44:36 51°13.636 2°56.02 16.2228 0.058543 0.300355 -3.020363
2011-11-23 07:44:41 51°13.636 2°56.02 16.2236 0.058543 0.300355 -3.020363
2011-11-23 07:44:46 51°13.636 2°56.02 16.2261 0.058543 0.300355 -3.020363
2011-11-23 07:44:51 51°13.636 2°56.019 16.2303 0.058543 0.30036 -3.020363
2011-11-23 07:44:56 51°13.636 2°56.019 16.2277 0.058543 0.30036 -3.020363
2011-11-23 07:45:01 51°13.636 2°56.019 16.2278 0.058543 0.30036 -3.020363
2011-11-23 07:45:06 51°13.636 2°56.019 16.2279 0.058543 0.30036 -3.020363
2011-11-23 07:45:11 51°13.636 2°56.019 16.2283 0.058543 0.30036 -3.020363
2011-11-23 07:45:16 51°13.636 2°56.019 16.2264 0.058543 0.30036 -3.020363
2011-11-23 07:45:21 51°13.636 2°56.019 16.2274 0.05844 0.299819 -3.020363
2011-11-23 07:45:26 51°13.636 2°56.019 16.2275 0.058543 0.30036 -3.020363
2011-11-23 07:45:31 51°13.636 2°56.019 16.2281 0.058543 0.30036 -3.020363
2011-11-23 07:45:36 51°13.636 2°56.019 16.2276 0.058543 0.30036 -3.020363
2011-11-23 07:45:41 51°13.636 2°56.019 16.227 0.05844 0.299819 -3.020363
2011-11-23 07:45:46 51°13.636 2°56.019 16.2289 0.058543 0.30036 -3.020363
2011-11-23 07:45:51 51°13.636 2°56.019 16.2282 0.05844 0.299819 -3.020363
2011-11-23 07:45:56 51°13.636 2°56.019 16.2295 0.05844 0.299819 -3.020363
2011-11-23 07:46:01 51°13.636 2°56.019 16.2296 0.05844 0.299819 -3.020363
2011-11-23 07:46:06 51°13.636 2°56.019 16.2326 0.05844 0.299819 -3.020363
2011-11-23 07:46:11 51°13.636 2°56.019 16.2275 0.058543 0.30036 -3.020363
2011-11-23 07:46:16 51°13.636 2°56.019 16.2279 0.058543 0.30036 -3.020363
2011-11-23 07:46:21 51°13.636 2°56.019 16.229 0.05844 0.299819 -3.020363
2011-11-23 07:46:26 51°13.636 2°56.019 16.2272 0.05844 0.299819 -3.020363
2011-11-23 07:46:31 51°13.636 2°56.019 16.1896 0.05844 0.299819 -3.020363
2011-11-23 07:46:36 51°13.636 2°56.019 16.1944 0.05844 0.299819 -3.020363
2011-11-23 07:46:41 51°13.636 2°56.019 16.1967 0.058543 0.30036 -3.020363
2011-11-23 07:46:46 51°13.636 2°56.019 16.2103 0.05844 0.299824 -3.020363
2011-11-23 07:46:51 51°13.636 2°56.019 16.2112 0.058543 0.300365 -3.020363
2011-11-23 07:46:56 51°13.636 2°56.019 16.2179 0.058543 0.300365 -3.020363
2011-11-23 07:47:01 51°13.636 2°56.019 16.2197 0.058543 0.300365 -3.020363
2011-11-23 07:47:06 51°13.636 2°56.019 16.2183 0.058543 0.300365 -3.020363
2011-11-23 07:47:11 51°13.636 2°56.019 16.2174 0.058543 0.300365 -3.020363
2011-11-23 07:47:16 51°13.636 2°56.019 16.2179 0.058543 0.300365 -3.020363
2011-11-23 07:47:21 51°13.636 2°56.018 16.2189 0.05844 0.299824 -3.020363
2011-11-23 07:47:26 51°13.635 2°56.018 16.2191 0.05844 0.299819 -3.020363
2011-11-23 07:47:31 51°13.635 2°56.018 16.2216 0.05844 0.299819 -3.020363
2011-11-23 07:47:36 51°13.635 2°56.018 16.2227 0.058543 0.30036 -3.020363
2011-11-23 07:47:41 51°13.635 2°56.018 16.2189 0.05844 0.299824 -3.020363
2011-11-23 07:47:46 51°13.635 2°56.018 16.2199 0.05844 0.299824 -3.020363
2011-11-23 07:47:51 51°13.636 2°56.018 16.2206 0.05844 0.299819 -3.020363
2011-11-23 07:47:55 51°13.636 2°56.018 16.2201 0.05844 0.299824 -3.020363
2011-11-23 07:48:01 51°13.636 2°56.018 16.2186 0.05844 0.299824 -3.020363
2011-11-23 07:48:06 51°13.636 2°56.019 16.2279 0.05844 0.299824 -3.020363
2011-11-23 07:48:11 51°13.636 2°56.019 16.2283 0.05844 0.299824 -3.020363
2011-11-23 07:48:15 51°13.636 2°56.019 16.2314 0.05844 0.299824 -3.020363
2011-11-23 07:48:21 51°13.636 2°56.019 16.2405 0.058543 0.30037 -3.020363
2011-11-23 07:48:26 51°13.636 2°56.019 16.2383 0.058543 0.300365 -3.020363
2011-11-23 07:48:30 51°13.636 2°56.019 16.2433 0.058543 0.300365 -3.020363
2011-11-23 07:48:35 51°13.636 2°56.019 16.241 0.05844 0.299824 -3.020363
2011-11-23 07:48:40 51°13.636 2°56.019 16.2408 0.058543 0.30037 -3.020363
2011-11-23 07:48:46 51°13.636 2°56.019 16.2347 0.05844 0.299829 -3.020363
2011-11-23 07:48:51 51°13.636 2°56.019 16.238 0.058543 0.300365 -3.020363
2011-11-23 07:48:56 51°13.636 2°56.019 16.2369 0.058543 0.300365 -3.020363
2011-11-23 07:49:01 51°13.636 2°56.019 16.2378 0.058543 0.300365 -3.020363
2011-11-23 07:49:06 51°13.636 2°56.019 16.2376 0.05844 0.299824 -3.020363
2011-11-23 07:49:11 51°13.636 2°56.019 16.236 0.058543 0.300365 -3.020363
2011-11-23 07:49:16 51°13.636 2°56.019 16.235 0.05844 0.299824 -3.020363
2011-11-23 07:49:21 51°13.636 2°56.019 16.24 0.058543 0.300365 -3.020363
2011-11-23 07:49:26 51°13.636 2°56.019 16.2425 0.058543 0.300365 -3.020363
2011-11-23 07:49:31 51°13.636 2°56.019 16.2442 0.058543 0.300365 -3.020363
2011-11-23 07:49:36 51°13.636 2°56.019 16.2473 0.05844 0.299824 -3.020363
2011-11-23 07:49:41 51°13.636 2°56.019 16.2493 0.05844 0.299829 -3.020363
2011-11-23 07:49:46 51°13.636 2°56.019 16.2503 0.058543 0.300365 -3.020363
2011-11-23 07:49:51 51°13.637 2°56.019 16.2527 0.05844 0.299824 -3.020363
2011-11-23 07:49:56 51°13.637 2°56.019 16.2538 0.058543 0.300365 -3.020363
2011-11-23 07:50:01 51°13.637 2°56.019 16.2541 0.058543 0.300365 -3.020363
2011-11-23 07:50:06 51°13.636 2°56.019 16.2546 0.05844 0.299824 -3.020363
2011-11-23 07:50:11 51°13.636 2°56.019 16.2544 0.05844 0.299824 -3.020363
2011-11-23 07:50:16 51°13.636 2°56.019 16.252 0.058543 0.300365 -3.020363
2011-11-23 07:50:21 51°13.636 2°56.018 16.2509 0.05844 0.299829 -3.020363
2011-11-23 07:50:26 51°13.635 2°56.018 16.2497 0.058543 0.300365 -3.020363
2011-11-23 07:50:31 51°13.634 2°56.018 16.2507 0.058543 0.300365 -3.020363
2011-11-23 07:50:36 51°13.635 2°56.018 16.2506 0.05844 0.299824 -3.020363
2011-11-23 07:50:41 51°13.635 2°56.018 16.2519 0.05844 0.299829 -3.020363
2011-11-23 07:50:46 51°13.635 2°56.018 16.2512 0.05844 0.299824 -3.020363
2011-11-23 07:50:51 51°13.635 2°56.018 16.2508 0.05844 0.299824 -3.020363
2011-11-23 07:50:56 51°13.635 2°56.018 16.2449 0.05844 0.299824 -3.020363
2011-11-23 07:51:01 51°13.635 2°56.018 16.2408 0.05844 0.299824 -3.020363
2011-11-23 07:51:06 51°13.635 2°56.018 16.2318 0.05844 0.299824 -3.020363
2011-11-23 07:51:12 51°13.635 2°56.019 16.2282 0.05844 0.299824 -3.020363
2011-11-23 07:51:16 51°13.635 2°56.019 16.2645 0.058646 0.300906 -3.020363
2011-11-23 07:51:21 51°13.635 2°56.019 16.2622 0.058543 0.30037 -3.020363
2011-11-23 07:51:26 51°13.635 2°56.019 16.2612 0.058543 0.300365 -3.020363
2011-11-23 07:51:31 51°13.635 2°56.019 16.262 0.058543 0.300365 -3.020363
2011-11-23 07:51:37 51°13.635 2°56.019 16.2648 0.058543 0.300365 -3.020363
2011-11-23 07:51:41 51°13.635 2°56.019 16.267 0.058543 0.30037 -3.020363
2011-11-23 07:51:46 51°13.635 2°56.019 16.2679 0.058543 0.300365 -3.020363
2011-11-23 07:51:51 51°13.635 2°56.019 16.2684 0.058543 0.300365 -3.020363
2011-11-23 07:51:56 51°13.635 2°56.019 16.2686 0.058543 0.300365 -3.020363
2011-11-23 07:52:01 51°13.635 2°56.019 16.2691 0.058543 0.300365 -3.020363
2011-11-23 07:52:06 51°13.635 2°56.019 16.2689 0.058543 0.300365 -3.020363
2011-11-23 07:52:11 51°13.634 2°56.019 16.2683 0.058543 0.300365 -3.020363
2011-11-23 07:52:16 51°13.634 2°56.019 16.2644 0.058543 0.300365 -3.020363
2011-11-23 07:52:21 51°13.634 2°56.018 16.2588 0.058543 0.300365 -3.020363
2011-11-23 07:52:26 51°13.634 2°56.018 16.2178 0.058543 0.300365 -3.020363
2011-11-23 07:52:31 51°13.634 2°56.018 16.2274 0.058543 0.300365 -3.020363
2011-11-23 07:52:36 51°13.634 2°56.017 16.1578 0.058646 0.300911 -3.020363
2011-11-23 07:52:41 51°13.635 2°56.015 16.1785 0.058646 0.300906 -3.020363
2011-11-23 07:52:46 51°13.635 2°56.013 16.1896 0.058543 0.300365 -3.020363
2011-11-23 07:52:51 51°13.636 2°56.01 16.2128 0.058646 0.300906 -3.020363
2011-11-23 07:52:56 51°13.637 2°56.006 16.2228 0.058646 0.300911 -3.020363
2011-11-23 07:53:01 51°13.638 2°56.002 16.2919 0.058646 0.300911 -3.020363
2011-11-23 07:53:07 51°13.639 2°55.996 16.2558 0.058646 0.300906 -3.020363
2011-11-23 07:53:13 51°13.64 2°55.989 16.2777 0.058646 0.300906 -3.020363
2011-11-23 07:53:18 51°13.641 2°55.984 16.2618 0.058646 0.300906 -3.020363
2011-11-23 07:53:24 51°13.643 2°55.977 16.2693 0.058646 0.300911 -3.020363
2011-11-23 07:53:29 51°13.644 2°55.97 16.2657 0.058749 0.301447 -3.020363
2011-11-23 07:53:34 51°13.646 2°55.964 16.2777 0.058749 0.301447 -3.020363
2011-11-23 07:53:39 51°13.647 2°55.957 16.3049 0.058646 0.300906 -3.020363
2011-11-23 07:53:44 51°13.649 2°55.95 16.312 0.058646 0.300906 -3.020363
2011-11-23 07:53:49 51°13.651 2°55.942 16.2897 0.058543 0.300365 -3.020363
2011-11-23 07:53:54 51°13.653 2°55.935 16.2979 0.058646 0.300906 -3.020363
2011-11-23 07:53:59 51°13.655 2°55.927 16.2958 0.058646 0.300911 -3.020363
2011-11-23 07:54:04 51°13.657 2°55.919 16.294 0.058646 0.300911 -3.020363
2011-11-23 07:54:09 51°13.66 2°55.911 16.2836 0.058543 0.30037 -3.020363
2011-11-23 07:54:14 51°13.662 2°55.902 16.3055 0.058646 0.300911 -3.020363
2011-11-23 07:54:20 51°13.666 2°55.893 16.2891 0.058646 0.300911 -3.020363
2011-11-23 07:54:24 51°13.668 2°55.886 16.3002 0.058646 0.300911 -3.020363
2011-11-23 07:54:29 51°13.671 2°55.878 16.3018 0.058543 0.30037 -3.020363
2011-11-23 07:54:34 51°13.674 2°55.869 16.3026 0.058543 0.30037 -3.020363
2011-11-23 07:54:39 51°13.677 2°55.86 16.2847 0.058646 0.300911 -3.020363
2011-11-23 07:54:45 51°13.681 2°55.85 16.2971 0.058646 0.300911 -3.020363
2011-11-23 07:54:49 51°13.684 2°55.843 16.2919 0.058543 0.300365 -3.020363
2011-11-23 07:54:54 51°13.688 2°55.835 16.295 0.058646 0.300911 -3.020363
2011-11-23 07:54:59 51°13.691 2°55.826 16.2908 0.058543 0.30037 -3.020363
2011-11-23 07:55:04 51°13.695 2°55.817 16.3036 0.058543 0.30037 -3.020363
2011-11-23 07:55:09 51°13.699 2°55.809 16.2696 0.058646 0.300911 -3.020363
2011-11-23 07:55:14 51°13.703 2°55.801 16.2906 0.058543 0.300375 -3.020363
2011-11-23 07:55:18 51°13.706 2°55.794 16.2824 0.058646 0.300916 -3.020363
2011-11-23 07:55:24 51°13.711 2°55.784 16.3022 0.058646 0.300916 -3.020363
2011-11-23 07:55:29 51°13.715 2°55.775 16.3026 0.058543 0.300375 -3.020363
2011-11-23 07:55:35 51°13.72 2°55.765 16.3228 0.058543 0.300375 -3.020363
2011-11-23 07:55:39 51°13.724 2°55.758 16.3257 0.058646 0.300916 -3.020363
2011-11-23 07:55:45 51°13.729 2°55.748 16.3221 0.058646 0.300911 -3.020363
2011-11-23 07:55:50 51°13.733 2°55.74 16.3299 0.058646 0.300911 -3.020363
2011-11-23 07:55:55 51°13.738 2°55.733 16.342 0.058646 0.300911 -3.020363
2011-11-23 07:55:59 51°13.742 2°55.727 16.3565 0.058646 0.300911 -3.020363
2011-11-23 07:56:05 51°13.748 2°55.719 16.3263 0.058646 0.300911 -3.020363
2011-11-23 07:56:10 51°13.753 2°55.712 16.3174 0.058646 0.300911 -3.020363
2011-11-23 07:56:15 51°13.759 2°55.705 16.3202 0.058646 0.300916 -3.020363
2011-11-23 07:56:19 51°13.763 2°55.7 16.3226 0.058749 0.301457 -3.020363
2011-11-23 07:56:25 51°13.77 2°55.693 16.3215 0.058954 0.302539 -3.020363
2011-11-23 07:56:30 51°13.776 2°55.688 16.3256 0.059057 0.303085 -3.020363
2011-11-23 07:56:34 51°13.781 2°55.683 16.324 0.059057 0.303085 -3.020363
2011-11-23 07:56:39 51°13.787 2°55.678 16.3292 0.058851 0.302003 -3.020363
2011-11-23 07:56:45 51°13.795 2°55.672 16.3246 0.058851 0.301998 -3.020363
2011-11-23 07:56:50 51°13.801 2°55.667 16.3201 0.058954 0.302539 -3.020363
2011-11-23 07:56:55 51°13.808 2°55.663 16.3039 0.058851 0.301998 -3.020363
2011-11-23 07:56:59 51°13.813 2°55.659 16.3072 0.058646 0.300916 -3.020363
2011-11-23 07:57:05 51°13.821 2°55.653 16.2733 0.058646 0.300916 -3.020363
2011-11-23 07:57:10 51°13.828 2°55.648 16.2988 0.058646 0.300916 -3.020363
2011-11-23 07:57:15 51°13.834 2°55.644 16.3488 0.058646 0.300916 -3.020363
2011-11-23 07:57:19 51°13.839 2°55.64 16.3207 0.058646 0.300916 -3.020363
2011-11-23 07:57:25 51°13.847 2°55.635 16.311 0.058646 0.300916 -3.020363
2011-11-23 07:57:30 51°13.853 2°55.631 16.3245 0.058646 0.300916 -3.020363
2011-11-23 07:57:35 51°13.859 2°55.627 16.3231 0.058646 0.300916 -3.020363
2011-11-23 07:57:39 51°13.864 2°55.625 16.357 0.058646 0.300916 -3.020363
2011-11-23 07:57:45 51°13.87 2°55.621 16.3578 0.058646 0.300916 -3.020363
2011-11-23 07:57:50 51°13.876 2°55.619 16.3537 0.058646 0.300921 -3.020363
2011-11-23 07:57:54 51°13.88 2°55.617 16.356 0.058646 0.300921 -3.020363
2011-11-23 07:57:59 51°13.885 2°55.615 16.3669 0.058646 0.300916 -3.020363
2011-11-23 07:58:04 51°13.89 2°55.613 16.3802 0.058646 0.300916 -3.020363
2011-11-23 07:58:09 51°13.894 2°55.612 16.3684 0.058646 0.300916 -3.020363
2011-11-23 07:58:15 51°13.899 2°55.611 16.3729 0.058646 0.300921 -3.020363
2011-11-23 07:58:19 51°13.903 2°55.61 16.3475 0.058646 0.300921 -3.020363
2011-11-23 07:58:24 51°13.907 2°55.61 16.3624 0.058646 0.300921 -3.020363
2011-11-23 07:58:28 51°13.911 2°55.61 16.3398 0.058646 0.300925 -3.020363
2011-11-23 07:58:33 51°13.914 2°55.61 16.34 0.058646 0.300925 -3.020363
2011-11-23 07:58:39 51°13.919 2°55.611 16.3129 0.058646 0.300925 -3.020363
2011-11-23 07:58:44 51°13.923 2°55.612 16.2902 0.058646 0.300925 -3.020363
2011-11-23 07:58:49 51°13.927 2°55.613 16.2679 0.058749 0.301467 -3.020363
2011-11-23 07:58:54 51°13.931 2°55.615 16.3009 0.058851 0.302013 -3.020363
2011-11-23 07:59:00 51°13.936 2°55.617 16.3302 0.058646 0.300925 -3.020363
2011-11-23 07:59:04 51°13.939 2°55.619 16.3572 0.058646 0.300925 -3.020363
2011-11-23 07:59:10 51°13.944 2°55.621 16.3264 0.058646 0.30093 -3.020363
2011-11-23 07:59:15 51°13.947 2°55.623 16.3672 0.058646 0.30093 -3.020363
2011-11-23 07:59:20 51°13.951 2°55.626 16.3269 0.058646 0.300925 -3.020363
2011-11-23 07:59:24 51°13.953 2°55.628 16.3417 0.058646 0.300925 -3.020363
2011-11-23 07:59:29 51°13.956 2°55.63 16.3446 0.058646 0.300925 -3.020363
2011-11-23 07:59:34 51°13.959 2°55.632 16.3284 0.058646 0.300925 -3.020363
2011-11-23 07:59:39 51°13.962 2°55.634 16.3601 0.058646 0.300925 -3.020363
2011-11-23 07:59:44 51°13.964 2°55.636 16.3495 0.058646 0.30093 -3.020363
2011-11-23 07:59:48 51°13.966 2°55.637 16.3718 0.058646 0.300925 -3.020363
2011-11-23 07:59:53 51°13.967 2°55.638 16.3661 0.058646 0.300925 -3.020363
2011-11-23 07:59:58 51°13.968 2°55.639 16.3797 0.058646 0.300921 -3.020363
2011-11-23 08:00:03 51°13.969 2°55.639 16.3621 0.058646 0.300921 -3.020363
2011-11-23 08:00:09 51°13.969 2°55.638 16.3547 0.058646 0.300916 -3.020363
2011-11-23 08:00:13 51°13.97 2°55.637 16.3594 0.058646 0.300911 -3.020363
2011-11-23 08:00:18 51°13.97 2°55.635 16.3384 0.058646 0.300911 -3.020363
2011-11-23 08:00:24 51°13.969 2°55.633 16.2968 0.058646 0.300916 -3.020363
2011-11-23 08:00:29 51°13.969 2°55.63 16.2441 0.058646 0.300921 -3.020363
2011-11-23 08:00:33 51°13.969 2°55.627 16.1166 0.058646 0.300921 -3.020363
2011-11-23 08:00:38 51°13.969 2°55.624 16.1078 0.058646 0.300925 -3.020363
2011-11-23 08:00:43 51°13.97 2°55.62 16.1425 0.058646 0.30093 -3.020363
2011-11-23 08:00:48 51°13.97 2°55.615 16.251 0.058646 0.300935 -3.020363
2011-11-23 08:00:53 51°13.971 2°55.61 16.1321 0.058646 0.30094 -3.020363
2011-11-23 08:00:57 51°13.972 2°55.606 16.0918 0.058646 0.30094 -3.020363
2011-11-23 08:01:02 51°13.973 2°55.601 16.1617 0.058646 0.30094 -3.020363
2011-11-23 08:01:07 51°13.974 2°55.596 16.2022 0.058646 0.30094 -3.020363
2011-11-23 08:01:12 51°13.976 2°55.59 16.1899 0.058646 0.30094 -3.020363
2011-11-23 08:01:17 51°13.979 2°55.585 16.0049 0.058646 0.300935 -3.020363
2011-11-23 08:01:21 51°13.981 2°55.581 16.0637 0.058543 0.300394 -3.020363
2011-11-23 08:01:26 51°13.984 2°55.575 16.2834 0.058543 0.300389 -3.020363
2011-11-23 08:01:31 51°13.988 2°55.57 16.3445 0.058543 0.300389 -3.020363
2011-11-23 08:01:37 51°13.993 2°55.563 16.3456 0.058543 0.300394 -3.020363
2011-11-23 08:01:41 51°13.996 2°55.559 16.3377 0.058543 0.300394 -3.020363
2011-11-23 08:01:46 51°14.001 2°55.553 16.3308 0.058646 0.300935 -3.020363
2011-11-23 08:01:51 51°14.007 2°55.547 16.3334 0.058646 0.300935 -3.020363
2011-11-23 08:01:56 51°14.013 2°55.54 16.3013 0.058543 0.300389 -3.020363
2011-11-23 08:02:01 51°14.02 2°55.533 16.3011 0.058543 0.300389 -3.020363
2011-11-23 08:02:06 51°14.027 2°55.526 16.2786 0.058646 0.30093 -3.020363
2011-11-23 08:02:11 51°14.034 2°55.518 16.2693 0.058646 0.300925 -3.020363
2011-11-23 08:02:16 51°14.043 2°55.509 16.1501 0.058646 0.30093 -3.020363
2011-11-23 08:02:21 51°14.051 2°55.5 16.1635 0.058646 0.300925 -3.020363
2011-11-23 08:02:26 51°14.06 2°55.492 16.1649 0.058646 0.300925 -3.020363
2011-11-23 08:02:31 51°14.069 2°55.482 16.1428 0.058646 0.300925 -3.020363
2011-11-23 08:02:36 51°14.079 2°55.473 16.045 0.058646 0.300925 -3.020363
2011-11-23 08:02:41 51°14.089 2°55.464 16.1454 0.058646 0.300925 -3.020363
2011-11-23 08:02:45 51°14.097 2°55.456 16.1067 0.058646 0.300925 -3.020363
2011-11-23 08:02:51 51°14.109 2°55.444 16.072 0.058646 0.30093 -3.020363
2011-11-23 08:02:56 51°14.12 2°55.434 16.0751 0.058646 0.300925 -3.020363
2011-11-23 08:03:01 51°14.13 2°55.424 16.1219 0.058646 0.300925 -3.020363
2011-11-23 08:03:06 51°14.141 2°55.414 16.0997 0.058646 0.30093 -3.020363
2011-11-23 08:03:12 51°14.154 2°55.402 16.1061 0.058646 0.300925 -3.020363
2011-11-23 08:03:17 51°14.166 2°55.392 16.1799 0.058646 0.300925 -3.020363
2011-11-23 08:03:23 51°14.18 2°55.38 16.2635 0.058646 0.300925 -3.020363
2011-11-23 08:03:29 51°14.193 2°55.366 16.0815 0.058646 0.30093 -3.020363
2011-11-23 08:03:34 51°14.204 2°55.355 16.0302 0.058646 0.30093 -3.020363
2011-11-23 08:03:40 51°14.219 2°55.342 16.0166 0.058646 0.300925 -3.020363
2011-11-23 08:03:45 51°14.231 2°55.33 15.9743 0.058646 0.300925 -3.020363
2011-11-23 08:03:49 51°14.24 2°55.321 15.9401 0.058543 0.300384 -3.020363
2011-11-23 08:03:54 51°14.252 2°55.311 16.0742 0.058646 0.300921 -3.020363
2011-11-23 08:03:59 51°14.265 2°55.3 16.0796 0.058646 0.300925 -3.020363
2011-11-23 08:04:05 51°14.279 2°55.287 16.049 0.058646 0.300925 -3.020363
2011-11-23 08:04:09 51°14.289 2°55.278 16.0905 0.058646 0.300925 -3.020363
2011-11-23 08:04:14 51°14.302 2°55.267 16.1073 0.058646 0.300925 -3.020363
2011-11-23 08:04:19 51°14.315 2°55.256 16.1115 0.058646 0.30093 -3.020363
2011-11-23 08:04:24 51°14.328 2°55.244 16.1555 0.058646 0.30093 -3.020363
2011-11-23 08:04:29 51°14.34 2°55.231 16.0364 0.058646 0.300921 -3.020363
2011-11-23 08:04:35 51°14.356 2°55.217 16.0241 0.058646 0.300921 -3.020363
2011-11-23 08:04:39 51°14.366 2°55.207 16.0043 0.058646 0.300901 -3.020363
2011-11-23 08:04:45 51°14.382 2°55.192 16.1261 0.058543 0.300341 -3.020363
2011-11-23 08:04:49 51°14.393 2°55.182 16.1117 0.058749 0.301423 -3.020363
2011-11-23 08:04:54 51°14.406 2°55.168 16.0136 0.058543 0.300345 -3.020363
2011-11-23 08:04:59 51°14.419 2°55.155 16.1777 0.058749 0.301442 -3.020363
2011-11-23 08:05:05 51°14.434 2°55.139 16.0146 0.058749 0.301442 -3.020363
2011-11-23 08:05:09 51°14.445 2°55.128 16.0893 0.058646 0.300916 -3.020363
2011-11-23 08:05:14 51°14.457 2°55.114 16.1378 0.058646 0.300935 -3.020363
2011-11-23 08:05:19 51°14.47 2°55.1 16.183 0.058646 0.30095 -3.020363
2011-11-23 08:05:24 51°14.483 2°55.086 16.1451 0.058646 0.300959 -3.020363
2011-11-23 08:05:29 51°14.496 2°55.072 15.9864 0.058646 0.300959 -3.020363
2011-11-23 08:05:33 51°14.506 2°55.061 16.0828 0.058646 0.300959 -3.020363
2011-11-23 08:05:38 51°14.519 2°55.049 16.1486 0.058646 0.30095 -3.020363
2011-11-23 08:05:43 51°14.532 2°55.035 16.1063 0.058646 0.30095 -3.020363
2011-11-23 08:05:48 51°14.545 2°55.022 16.196 0.058646 0.30094 -3.020363
2011-11-23 08:05:53 51°14.558 2°55.008 16.1354 0.058646 0.300935 -3.020363
2011-11-23 08:05:57 51°14.568 2°54.997 16.1184 0.058646 0.30093 -3.020363
2011-11-23 08:06:02 51°14.581 2°54.983 15.9806 0.058646 0.30093 -3.020363
2011-11-23 08:06:07 51°14.594 2°54.969 16.0865 0.058543 0.30038 -3.020363
2011-11-23 08:06:12 51°14.607 2°54.956 16.1515 0.058543 0.30038 -3.020363
2011-11-23 08:06:17 51°14.62 2°54.943 16.268 0.058749 0.301462 -3.020363
2011-11-23 08:06:22 51°14.633 2°54.929 16.0043 0.058646 0.300925 -3.020363
2011-11-23 08:06:27 51°14.646 2°54.915 15.8663 0.058646 0.300925 -3.020363
2011-11-23 08:06:32 51°14.659 2°54.902 15.9382 0.058646 0.300925 -3.020363
2011-11-23 08:06:37 51°14.673 2°54.89 16.0564 0.058646 0.300925 -3.020363
2011-11-23 08:06:41 51°14.684 2°54.88 16.04 0.058646 0.300925 -3.020363
2011-11-23 08:06:46 51°14.698 2°54.87 16.0764 0.058646 0.300921 -3.020363
2011-11-23 08:06:51 51°14.712 2°54.86 16.0995 0.058646 0.300921 -3.020363
2011-11-23 08:06:56 51°14.727 2°54.85 16.0722 0.058646 0.300925 -3.020363
2011-11-23 08:07:01 51°14.741 2°54.842 16.0193 0.058646 0.300925 -3.020363
2011-11-23 08:07:06 51°14.756 2°54.834 15.9873 0.058646 0.300925 -3.020363
2011-11-23 08:07:11 51°14.771 2°54.827 16.1411 0.058543 0.300384 -3.020363
2011-11-23 08:07:16 51°14.786 2°54.822 16.0686 0.058646 0.30093 -3.020363
2011-11-23 08:07:21 51°14.802 2°54.817 16.0021 0.058646 0.300935 -3.020363
2011-11-23 08:07:25 51°14.814 2°54.813 16.1125 0.058543 0.300389 -3.020363
2011-11-23 08:07:31 51°14.832 2°54.809 16.1793 0.058543 0.300389 -3.020363
2011-11-23 08:07:36 51°14.848 2°54.807 16.0851 0.058646 0.30094 -3.020363
2011-11-23 08:07:41 51°14.864 2°54.804 16.1465 0.058646 0.30094 -3.020363
2011-11-23 08:07:45 51°14.876 2°54.803 16.0385 0.058646 0.300935 -3.020363
2011-11-23 08:07:51 51°14.895 2°54.801 16.1001 0.058646 0.300935 -3.020363
2011-11-23 08:07:56 51°14.91 2°54.801 16.1628 0.058646 0.30093 -3.020363
2011-11-23 08:08:01 51°14.926 2°54.801 16.1284 0.058646 0.30093 -3.020363
2011-11-23 08:08:06 51°14.942 2°54.802 16.0926 0.058646 0.30093 -3.020363
2011-11-23 08:08:10 51°14.954 2°54.802 16.0446 0.058646 0.30093 -3.020363
2011-11-23 08:08:16 51°14.973 2°54.803 15.9881 0.058646 0.300925 -3.020363
2011-11-23 08:08:21 51°14.988 2°54.806 16.0659 0.058646 0.300925 -3.020363
2011-11-23 08:08:26 51°15.004 2°54.81 16.1741 0.058646 0.300925 -3.020363
2011-11-23 08:08:31 51°15.019 2°54.815 16.16 0.058646 0.300925 -3.020363
2011-11-23 08:08:36 51°15.034 2°54.821 16.1048 0.058646 0.30093 -3.020363
2011-11-23 08:08:41 51°15.049 2°54.828 16.0524 0.058646 0.300935 -3.020363
2011-11-23 08:08:46 51°15.064 2°54.835 16.067 0.058543 0.300394 -3.020363
2011-11-23 08:08:51 51°15.079 2°54.844 16.1121 0.058543 0.300394 -3.020363
2011-11-23 08:08:56 51°15.093 2°54.853 16.1695 0.058646 0.30094 -3.020363
2011-11-23 08:09:01 51°15.107 2°54.864 16.146 0.058646 0.30094 -3.020363
2011-11-23 08:09:06 51°15.121 2°54.875 16.0251 0.058646 0.30094 -3.020363
2011-11-23 08:09:11 51°15.135 2°54.887 16.0636 0.058646 0.30094 -3.020363
2011-11-23 08:09:16 51°15.148 2°54.9 15.9719 0.058646 0.300935 -3.020363
2011-11-23 08:09:21 51°15.161 2°54.914 16.0641 0.058543 0.300394 -3.020363
2011-11-23 08:09:25 51°15.171 2°54.926 16.1588 0.058646 0.300935 -3.020363
2011-11-23 08:09:31 51°15.186 2°54.944 16.0821 0.058646 0.300935 -3.020363
2011-11-23 08:09:36 51°15.198 2°54.96 16.124 0.058646 0.300935 -3.020363
2011-11-23 08:09:41 51°15.21 2°54.976 16.0212 0.058646 0.30094 -3.020363
2011-11-23 08:09:46 51°15.222 2°54.993 16.1233 0.058646 0.30094 -3.020363
2011-11-23 08:09:51 51°15.233 2°55.01 16.154 0.058646 0.300945 -3.020363
2011-11-23 08:09:56 51°15.245 2°55.026 16.0246 0.058646 0.30094 -3.020363
2011-11-23 08:10:01 51°15.256 2°55.043 16.0994 0.058646 0.30094 -3.020363
2011-11-23 08:10:05 51°15.265 2°55.056 16.1335 0.058646 0.300945 -3.020363
2011-11-23 08:10:10 51°15.275 2°55.071 16.1434 0.058646 0.30094 -3.020363
2011-11-23 08:10:16 51°15.287 2°55.089 16.1674 0.058543 0.300404 -3.020363
2011-11-23 08:10:21 51°15.296 2°55.102 16.2697 0.058543 0.300404 -3.020363
2011-11-23 08:10:25 51°15.302 2°55.112 16.2758 0.058646 0.30095 -3.020363
2011-11-23 08:10:31 51°15.312 2°55.123 16.2846 0.058646 0.30095 -3.020363
2011-11-23 08:10:36 51°15.321 2°55.131 16.2809 0.058646 0.300955 -3.020363
2011-11-23 08:10:41 51°15.329 2°55.137 16.3119 0.058646 0.300964 -3.020363
2011-11-23 08:10:45 51°15.336 2°55.14 16.3121 0.058646 0.300969 -3.020363
2011-11-23 08:10:51 51°15.345 2°55.142 16.3022 0.058646 0.300974 -3.020363
2011-11-23 08:10:55 51°15.351 2°55.142 16.2925 0.058646 0.300979 -3.020363
2011-11-23 08:11:01 51°15.36 2°55.14 16.2595 0.058646 0.300979 -3.020363
2011-11-23 08:11:05 51°15.366 2°55.138 16.2575 0.058646 0.300979 -3.020363
2011-11-23 08:11:10 51°15.372 2°55.134 16.2864 0.058646 0.300984 -3.020363
2011-11-23 08:11:16 51°15.379 2°55.127 16.2491 0.058646 0.300989 -3.020363
2011-11-23 08:11:21 51°15.384 2°55.12 16.2697 0.058646 0.300989 -3.020363
2011-11-23 08:11:26 51°15.388 2°55.113 16.2528 0.058646 0.300989 -3.020363
2011-11-23 08:11:31 51°15.392 2°55.104 16.2429 0.058646 0.300989 -3.020363
2011-11-23 08:11:36 51°15.394 2°55.095 16.2873 0.058646 0.300984 -3.020363
2011-11-23 08:11:41 51°15.396 2°55.085 16.2611 0.058646 0.300989 -3.020363
2011-11-23 08:11:46 51°15.396 2°55.076 16.2701 0.058646 0.300984 -3.020363
2011-11-23 08:11:51 51°15.396 2°55.066 16.2265 0.058646 0.300984 -3.020363
2011-11-23 08:11:56 51°15.395 2°55.056 16.2489 0.058646 0.300979 -3.020363
2011-11-23 08:12:01 51°15.393 2°55.048 16.2332 0.058646 0.300979 -3.020363
2011-11-23 08:12:06 51°15.391 2°55.039 16.2663 0.058646 0.300974 -3.020363
2011-11-23 08:12:11 51°15.388 2°55.031 16.1738 0.058646 0.300974 -3.020363
2011-11-23 08:12:16 51°15.384 2°55.023 16.2177 0.058646 0.300969 -3.020363
2011-11-23 08:12:22 51°15.378 2°55.015 16.245 0.058646 0.300964 -3.020363
2011-11-23 08:12:26 51°15.374 2°55.011 16.1941 0.058646 0.300959 -3.020363
2011-11-23 08:12:31 51°15.368 2°55.006 16.2421 0.058646 0.300959 -3.020363
2011-11-23 08:12:36 51°15.361 2°55.002 16.2237 0.058646 0.300955 -3.020363
2011-11-23 08:12:41 51°15.355 2°55 16.1936 0.058646 0.300955 -3.020363
2011-11-23 08:12:46 51°15.348 2°55 16.1577 0.058646 0.300964 -3.020363
2011-11-23 08:12:51 51°15.341 2°55 16.0876 0.058646 0.300969 -3.020363
2011-11-23 08:12:56 51°15.335 2°55.002 16.1224 0.058646 0.300964 -3.020363
2011-11-23 08:13:02 51°15.327 2°55.003 16.0648 0.058646 0.300964 -3.020363
2011-11-23 08:13:06 51°15.321 2°55.005 16.0686 0.058543 0.300418 -3.020363
2011-11-23 08:13:11 51°15.314 2°55.006 16.0064 0.058646 0.300955 -3.020363
2011-11-23 08:13:16 51°15.307 2°55.007 15.979 0.058646 0.300955 -3.020363
2011-11-23 08:13:21 51°15.3 2°55.009 16.0829 0.058646 0.300959 -3.020363
2011-11-23 08:13:26 51°15.293 2°55.011 16.126 0.058646 0.300959 -3.020363
2011-11-23 08:13:31 51°15.287 2°55.013 16.1183 0.058646 0.300959 -3.020363
2011-11-23 08:13:36 51°15.28 2°55.016 16.1274 0.058646 0.300964 -3.020363
2011-11-23 08:13:41 51°15.274 2°55.018 16.1336 0.058646 0.300964 -3.020363
2011-11-23 08:13:46 51°15.268 2°55.021 16.1424 0.058646 0.300969 -3.020363
2011-11-23 08:13:51 51°15.263 2°55.024 16.1106 0.058646 0.300969 -3.020363
2011-11-23 08:13:56 51°15.257 2°55.027 16.1293 0.058646 0.300969 -3.020363
2011-11-23 08:14:01 51°15.252 2°55.03 16.1031 0.058646 0.300969 -3.020363
2011-11-23 08:14:06 51°15.246 2°55.033 16.1125 0.058646 0.300969 -3.020363
2011-11-23 08:14:11 51°15.241 2°55.036 16.1034 0.058646 0.300969 -3.020363
2011-11-23 08:14:16 51°15.236 2°55.039 16.1176 0.058646 0.300969 -3.020363
2011-11-23 08:14:22 51°15.229 2°55.043 16.1107 0.058646 0.300964 -3.020363
2011-11-23 08:14:26 51°15.225 2°55.045 16.1414 0.058646 0.300974 -3.020363
2011-11-23 08:14:31 51°15.221 2°55.048 16.1204 0.058646 0.300974 -3.020363
2011-11-23 08:14:37 51°15.215 2°55.051 16.1281 0.058646 0.300974 -3.020363
2011-11-23 08:14:41 51°15.211 2°55.052 16.1261 0.058543 0.300438 -3.020363
2011-11-23 08:14:46 51°15.206 2°55.054 16.1351 0.058543 0.300443 -3.020363
2011-11-23 08:14:51 51°15.202 2°55.055 16.1423 0.058646 0.300984 -3.020363
2011-11-23 08:14:56 51°15.197 2°55.056 16.0952 0.058543 0.300448 -3.020363
2011-11-23 08:15:01 51°15.193 2°55.056 16.0885 0.058543 0.300448 -3.020363
2011-11-23 08:15:06 51°15.189 2°55.056 16.0997 0.058646 0.300994 -3.020363
2011-11-23 08:15:11 51°15.185 2°55.056 16.1172 0.058543 0.300452 -3.020363
2011-11-23 08:15:16 51°15.181 2°55.055 16.0985 0.058646 0.300994 -3.020363
2011-11-23 08:15:21 51°15.177 2°55.054 16.1132 0.058543 0.300457 -3.020363
2011-11-23 08:15:26 51°15.173 2°55.053 16.1397 0.058543 0.300462 -3.020363
2011-11-23 08:15:31 51°15.17 2°55.051 16.1291 0.058543 0.300462 -3.020363
2011-11-23 08:15:36 51°15.166 2°55.049 16.0791 0.058543 0.300462 -3.020363
2011-11-23 08:15:41 51°15.163 2°55.046 16.0716 0.058646 0.300998 -3.020363
2011-11-23 08:15:46 51°15.16 2°55.043 16.0295 0.058646 0.301003 -3.020363
2011-11-23 08:15:51 51°15.157 2°55.039 16.0946 0.058543 0.300462 -3.020363
2011-11-23 08:15:56 51°15.154 2°55.036 16.1133 0.058646 0.301003 -3.020363
2011-11-23 08:16:01 51°15.151 2°55.032 16.1327 0.058646 0.301003 -3.020363
2011-11-23 08:16:06 51°15.148 2°55.028 16.1529 0.058543 0.300462 -3.020363
2011-11-23 08:16:11 51°15.146 2°55.024 16.0625 0.058646 0.301008 -3.020363
2011-11-23 08:16:16 51°15.143 2°55.02 16.1519 0.058543 0.300467 -3.020363
2011-11-23 08:16:21 51°15.14 2°55.015 16.1069 0.058646 0.301008 -3.020363
2011-11-23 08:16:26 51°15.137 2°55.01 16.1093 0.058646 0.301008 -3.020363
2011-11-23 08:16:31 51°15.134 2°55.005 16.0938 0.058646 0.301008 -3.020363
2011-11-23 08:16:36 51°15.131 2°55 16.0708 0.058646 0.301008 -3.020363
2011-11-23 08:16:42 51°15.127 2°54.994 16.1255 0.058646 0.301008 -3.020363
2011-11-23 08:16:46 51°15.125 2°54.99 16.0615 0.058646 0.301013 -3.020363
2011-11-23 08:16:51 51°15.121 2°54.984 16.1002 0.058646 0.301013 -3.020363
2011-11-23 08:16:57 51°15.117 2°54.978 16.0501 0.058646 0.301013 -3.020363
2011-11-23 08:17:01 51°15.114 2°54.974 16.0901 0.058646 0.301013 -3.020363
2011-11-23 08:17:06 51°15.111 2°54.968 16.0966 0.058646 0.301013 -3.020363
2011-11-23 08:17:11 51°15.107 2°54.963 16.0928 0.058646 0.301018 -3.020363
2011-11-23 08:17:16 51°15.103 2°54.957 16.097 0.058646 0.301018 -3.020363
2011-11-23 08:17:22 51°15.099 2°54.951 16.0644 0.058543 0.300477 -3.020363
2011-11-23 08:17:26 51°15.095 2°54.947 16.1226 0.058646 0.301023 -3.020363
2011-11-23 08:17:31 51°15.091 2°54.942 16.1375 0.058646 0.301023 -3.020363
2011-11-23 08:17:36 51°15.087 2°54.937 16.1287 0.058646 0.301028 -3.020363
2011-11-23 08:17:41 51°15.082 2°54.934 16.0949 0.058646 0.301033 -3.020363
2011-11-23 08:17:46 51°15.078 2°54.931 16.1253 0.058646 0.301033 -3.020363
2011-11-23 08:17:51 51°15.073 2°54.93 16.1575 0.058646 0.301037 -3.020363
2011-11-23 08:17:56 51°15.068 2°54.929 16.117 0.058646 0.301042 -3.020363
2011-11-23 08:18:01 51°15.063 2°54.929 16.1186 0.058646 0.301042 -3.020363
2011-11-23 08:18:06 51°15.057 2°54.93 16.1353 0.058646 0.301042 -3.020363
2011-11-23 08:18:11 51°15.052 2°54.932 16.0924 0.058646 0.301047 -3.020363
2011-11-23 08:18:16 51°15.048 2°54.935 16.1581 0.058646 0.301052 -3.020363
2011-11-23 08:18:21 51°15.043 2°54.939 16.1278 0.058646 0.301052 -3.020363
2011-11-23 08:18:26 51°15.038 2°54.944 16.1246 0.058646 0.301052 -3.020363
2011-11-23 08:18:31 51°15.034 2°54.95 16.1403 0.058646 0.301052 -3.020363
2011-11-23 08:18:36 51°15.03 2°54.956 16.15 0.058646 0.301052 -3.020363
2011-11-23 08:18:41 51°15.027 2°54.963 16.1444 0.058646 0.301057 -3.020363
2011-11-23 08:18:46 51°15.024 2°54.972 16.1398 0.058646 0.301057 -3.020363
2011-11-23 08:18:51 51°15.021 2°54.98 16.1103 0.058646 0.301057 -3.020363
2011-11-23 08:18:56 51°15.02 2°54.989 16.1282 0.058646 0.301057 -3.020363
2011-11-23 08:19:01 51°15.019 2°54.999 16.1214 0.058646 0.301057 -3.020363
2011-11-23 08:19:06 51°15.018 2°55.008 16.144 0.058646 0.301052 -3.020363
2011-11-23 08:19:11 51°15.018 2°55.018 16.1042 0.058646 0.301052 -3.020363
2011-11-23 08:19:16 51°15.019 2°55.028 16.1644 0.058646 0.301052 -3.020363
2011-11-23 08:19:22 51°15.021 2°55.039 16.125 0.058646 0.301052 -3.020363
2011-11-23 08:19:26 51°15.022 2°55.046 16.1567 0.058646 0.301057 -3.020363
2011-11-23 08:19:31 51°15.025 2°55.055 16.1178 0.058646 0.301057 -3.020363
2011-11-23 08:19:36 51°15.029 2°55.063 16.1255 0.058646 0.301052 -3.020363
2011-11-23 08:19:42 51°15.033 2°55.072 16.1037 0.058646 0.301057 -3.020363
2011-11-23 08:19:46 51°15.037 2°55.078 16.1329 0.058646 0.301057 -3.020363
2011-11-23 08:19:51 51°15.042 2°55.084 16.1469 0.058646 0.301062 -3.020363
2011-11-23 08:19:56 51°15.047 2°55.089 16.1638 0.058646 0.301062 -3.020363
2011-11-23 08:20:01 51°15.052 2°55.093 16.1084 0.058646 0.301062 -3.020363
2011-11-23 08:20:06 51°15.058 2°55.095 16.1417 0.058646 0.301067 -3.020363
2011-11-23 08:20:11 51°15.063 2°55.097 16.1386 0.058646 0.301072 -3.020363
2011-11-23 08:20:16 51°15.07 2°55.098 16.0964 0.058646 0.301072 -3.020363
2011-11-23 08:20:21 51°15.076 2°55.097 16.0332 0.058646 0.301067 -3.020363
2011-11-23 08:20:26 51°15.084 2°55.097 16.0295 0.058646 0.301062 -3.020363
2011-11-23 08:20:31 51°15.091 2°55.095 15.9964 0.058646 0.301062 -3.020363
2011-11-23 08:20:36 51°15.099 2°55.092 16.0043 0.058646 0.301057 -3.020363
2011-11-23 08:20:41 51°15.108 2°55.089 16.0003 0.058646 0.301052 -3.020363
2011-11-23 08:20:46 51°15.117 2°55.086 15.9792 0.058543 0.300511 -3.020363
2011-11-23 08:20:51 51°15.126 2°55.083 15.9829 0.058646 0.301052 -3.020363
2011-11-23 08:20:56 51°15.136 2°55.079 15.9912 0.058646 0.301057 -3.020363
2011-11-23 08:21:02 51°15.148 2°55.075 15.9657 0.058646 0.301057 -3.020363
2011-11-23 08:21:06 51°15.156 2°55.071 15.9637 0.058543 0.300525 -3.020363
2011-11-23 08:21:11 51°15.167 2°55.067 15.9791 0.058646 0.301072 -3.020363
2011-11-23 08:21:16 51°15.178 2°55.062 16.0034 0.058646 0.301076 -3.020363
2011-11-23 08:21:21 51°15.189 2°55.059 15.7991 0.058646 0.301081 -3.020363
2011-11-23 08:21:26 51°15.201 2°55.055 15.5953 0.058543 0.300535 -3.020363
2011-11-23 08:21:31 51°15.212 2°55.055 15.685 0.058543 0.300535 -3.020363
2011-11-23 08:21:36 51°15.224 2°55.056 15.75 0.058543 0.300535 -3.020363
2011-11-23 08:21:41 51°15.236 2°55.059 15.7846 0.058543 0.30054 -3.020363
2011-11-23 08:21:46 51°15.248 2°55.062 15.8086 0.058543 0.30055 -3.020363
2011-11-23 08:21:51 51°15.26 2°55.066 15.86 0.058646 0.301101 -3.020363
2011-11-23 08:21:56 51°15.273 2°55.071 15.781 0.058543 0.300569 -3.020363
2011-11-23 08:22:02 51°15.288 2°55.077 15.8799 0.058543 0.300569 -3.020363
2011-11-23 08:22:06 51°15.298 2°55.081 15.8393 0.058646 0.301115 -3.020363
2011-11-23 08:22:11 51°15.31 2°55.087 15.8578 0.058646 0.30112 -3.020363
2011-11-23 08:22:16 51°15.323 2°55.093 15.8484 0.058543 0.300579 -3.020363
2011-11-23 08:22:22 51°15.338 2°55.101 15.8664 0.058543 0.300579 -3.020363
2011-11-23 08:22:26 51°15.348 2°55.107 15.8609 0.058543 0.300579 -3.020363
2011-11-23 08:22:31 51°15.36 2°55.116 15.879 0.058543 0.300579 -3.020363
2011-11-23 08:22:36 51°15.373 2°55.125 15.8572 0.058646 0.301125 -3.020363
2011-11-23 08:22:41 51°15.385 2°55.134 15.9115 0.058543 0.300584 -3.020363
2011-11-23 08:22:46 51°15.397 2°55.144 15.85 0.058543 0.300589 -3.020363
2011-11-23 08:22:51 51°15.409 2°55.154 15.8611 0.058543 0.300594 -3.020363
2011-11-23 08:22:56 51°15.421 2°55.165 15.8624 0.058543 0.300598 -3.020363
2011-11-23 08:23:01 51°15.432 2°55.177 15.8756 0.058543 0.300598 -3.020363
2011-11-23 08:23:06 51°15.444 2°55.189 15.8416 0.058543 0.300598 -3.020363
2011-11-23 08:23:11 51°15.455 2°55.203 15.8962 0.058543 0.300598 -3.020363
2011-11-23 08:23:16 51°15.465 2°55.217 15.8721 0.058543 0.300608 -3.020363
2011-11-23 08:23:21 51°15.475 2°55.232 15.8522 0.058543 0.300603 -3.020363
2011-11-23 08:23:26 51°15.485 2°55.247 15.9077 0.058543 0.300608 -3.020363
2011-11-23 08:23:31 51°15.494 2°55.262 15.8922 0.058543 0.300608 -3.020363
2011-11-23 08:23:36 51°15.502 2°55.277 15.8311 0.058543 0.300613 -3.020363
2011-11-23 08:23:41 51°15.51 2°55.293 15.9336 0.058543 0.300613 -3.020363
2011-11-23 08:23:46 51°15.517 2°55.307 15.9407 0.058543 0.300618 -3.020363
2011-11-23 08:23:51 51°15.523 2°55.321 15.9319 0.058543 0.300623 -3.020363
2011-11-23 08:23:56 51°15.529 2°55.334 15.955 0.058543 0.300628 -3.020363
2011-11-23 08:24:01 51°15.535 2°55.348 15.9419 0.058543 0.300628 -3.020363
2011-11-23 08:24:06 51°15.54 2°55.36 15.9529 0.058543 0.300632 -3.020363
2011-11-23 08:24:11 51°15.545 2°55.373 15.9308 0.058543 0.300632 -3.020363
2011-11-23 08:24:16 51°15.55 2°55.385 15.9817 0.058543 0.300637 -3.020363
2011-11-23 08:24:21 51°15.554 2°55.397 15.9702 0.058543 0.300637 -3.020363
2011-11-23 08:24:26 51°15.559 2°55.408 15.9352 0.058543 0.300642 -3.020363
2011-11-23 08:24:31 51°15.563 2°55.419 15.9951 0.058543 0.300642 -3.020363
2011-11-23 08:24:36 51°15.567 2°55.43 15.9714 0.058543 0.300642 -3.020363
2011-11-23 08:24:41 51°15.571 2°55.44 15.9704 0.058543 0.300647 -3.020363
2011-11-23 08:24:46 51°15.576 2°55.45 15.9626 0.058543 0.300652 -3.020363
2011-11-23 08:24:51 51°15.58 2°55.46 15.9632 0.058543 0.300657 -3.020363
2011-11-23 08:24:56 51°15.584 2°55.47 15.9997 0.058543 0.300662 -3.020363
2011-11-23 08:25:01 51°15.588 2°55.479 15.912 0.058543 0.300662 -3.020363
2011-11-23 08:25:06 51°15.593 2°55.489 15.9989 0.058543 0.300667 -3.020363
2011-11-23 08:25:11 51°15.597 2°55.498 15.9624 0.058543 0.300676 -3.020363
2011-11-23 08:25:16 51°15.601 2°55.507 15.9262 0.058543 0.300681 -3.020363
2011-11-23 08:25:21 51°15.606 2°55.517 15.9737 0.058646 0.301228 -3.020363
2011-11-23 08:25:26 51°15.61 2°55.526 15.9747 0.058543 0.300691 -3.020363
2011-11-23 08:25:31 51°15.615 2°55.535 15.9182 0.058543 0.300691 -3.020363
2011-11-23 08:25:36 51°15.619 2°55.544 15.9636 0.058543 0.300696 -3.020363
2011-11-23 08:25:41 51°15.624 2°55.554 15.9372 0.058543 0.300701 -3.020363
2011-11-23 08:25:46 51°15.629 2°55.563 15.9624 0.058543 0.300701 -3.020363
2011-11-23 08:25:51 51°15.634 2°55.572 15.9623 0.058543 0.300706 -3.020363
2011-11-23 08:25:57 51°15.64 2°55.584 15.9351 0.058543 0.300706 -3.020363
2011-11-23 08:26:01 51°15.645 2°55.592 15.9628 0.058543 0.300706 -3.020363
2011-11-23 08:26:06 51°15.65 2°55.602 15.9395 0.058543 0.30071 -3.020363
2011-11-23 08:26:11 51°15.656 2°55.613 15.9363 0.058543 0.300715 -3.020363
2011-11-23 08:26:16 51°15.661 2°55.623 15.9527 0.058543 0.30072 -3.020363
2011-11-23 08:26:21 51°15.666 2°55.635 15.9242 0.058543 0.300725 -3.020363
2011-11-23 08:26:26 51°15.672 2°55.645 15.9536 0.058543 0.30073 -3.020363
2011-11-23 08:26:31 51°15.678 2°55.656 15.9427 0.058543 0.30073 -3.020363
2011-11-23 08:26:36 51°15.684 2°55.668 15.8781 0.058543 0.300735 -3.020363
2011-11-23 08:26:41 51°15.689 2°55.679 15.9639 0.058543 0.30074 -3.020363
2011-11-23 08:26:46 51°15.695 2°55.69 15.954 0.058543 0.300744 -3.020363
2011-11-23 08:26:51 51°15.701 2°55.702 15.9065 0.058543 0.300749 -3.020363
2011-11-23 08:26:56 51°15.707 2°55.713 15.9459 0.058543 0.300754 -3.020363
2011-11-23 08:27:01 51°15.712 2°55.724 15.9007 0.058543 0.300754 -3.020363
2011-11-23 08:27:06 51°15.718 2°55.736 15.9135 0.058543 0.300759 -3.020363
2011-11-23 08:27:11 51°15.723 2°55.747 15.8796 0.058543 0.300764 -3.020363
2011-11-23 08:27:16 51°15.728 2°55.759 15.9501 0.058543 0.300769 -3.020363
2011-11-23 08:27:21 51°15.733 2°55.77 15.8959 0.058543 0.300769 -3.020363
2011-11-23 08:27:26 51°15.738 2°55.782 15.9524 0.058543 0.300779 -3.020363
2011-11-23 08:27:31 51°15.743 2°55.794 15.8624 0.058543 0.300779 -3.020363
2011-11-23 08:27:36 51°15.747 2°55.806 15.8863 0.058543 0.300783 -3.020363
2011-11-23 08:27:41 51°15.752 2°55.818 15.9118 0.058543 0.300788 -3.020363
2011-11-23 08:27:46 51°15.756 2°55.829 15.9175 0.058543 0.300793 -3.020363
2011-11-23 08:27:51 51°15.76 2°55.841 15.8893 0.058543 0.300798 -3.020363
2011-11-23 08:27:56 51°15.764 2°55.853 15.9331 0.058543 0.300798 -3.020363
2011-11-23 08:28:02 51°15.77 2°55.867 15.94 0.058543 0.300798 -3.020363
2011-11-23 08:28:06 51°15.773 2°55.876 15.8706 0.058543 0.300803 -3.020363
2011-11-23 08:28:11 51°15.777 2°55.888 15.9315 0.058543 0.300808 -3.020363
2011-11-23 08:28:16 51°15.781 2°55.9 15.8849 0.058543 0.300813 -3.020363
2011-11-23 08:28:21 51°15.785 2°55.912 15.8852 0.058543 0.300818 -3.020363
2011-11-23 08:28:26 51°15.79 2°55.924 15.925 0.058543 0.300822 -3.020363
2011-11-23 08:28:31 51°15.795 2°55.936 15.9159 0.058543 0.300822 -3.020363
2011-11-23 08:28:36 51°15.8 2°55.947 15.9114 0.058543 0.300827 -3.020363
2011-11-23 08:28:42 51°15.805 2°55.962 15.8983 0.058543 0.300832 -3.020363
2011-11-23 08:28:46 51°15.809 2°55.971 15.9294 0.058543 0.300837 -3.020363
2011-11-23 08:28:51 51°15.815 2°55.983 15.9287 0.058543 0.300842 -3.020363
2011-11-23 08:28:56 51°15.819 2°55.995 15.9286 0.058543 0.300847 -3.020363
2011-11-23 08:29:02 51°15.823 2°56.009 15.9131 0.058543 0.300847 -3.020363
2011-11-23 08:29:06 51°15.827 2°56.019 15.9041 0.058543 0.300852 -3.020363
2011-11-23 08:29:11 51°15.831 2°56.031 15.9446 0.058543 0.300857 -3.020363
2011-11-23 08:29:16 51°15.835 2°56.042 15.9238 0.058543 0.300862 -3.020363
2011-11-23 08:29:21 51°15.84 2°56.054 15.8889 0.058543 0.300866 -3.020363
2011-11-23 08:29:26 51°15.844 2°56.066 15.9518 0.058543 0.300871 -3.020363
2011-11-23 08:29:31 51°15.848 2°56.078 15.9524 0.058543 0.300871 -3.020363
2011-11-23 08:29:36 51°15.853 2°56.09 15.8705 0.058543 0.300876 -3.020363
2011-11-23 08:29:41 51°15.857 2°56.101 15.9387 0.058543 0.300876 -3.020363
2011-11-23 08:29:46 51°15.86 2°56.113 15.9178 0.058543 0.300886 -3.020363
2011-11-23 08:29:51 51°15.864 2°56.125 15.919 0.058543 0.300886 -3.020363
2011-11-23 08:29:56 51°15.869 2°56.136 15.9306 0.058543 0.300891 -3.020363
2011-11-23 08:30:01 51°15.873 2°56.148 15.9302 0.058543 0.300891 -3.020363
2011-11-23 08:30:06 51°15.877 2°56.16 15.9197 0.058543 0.300896 -3.020363
2011-11-23 08:30:11 51°15.882 2°56.172 15.9123 0.058543 0.300901 -3.020363
2011-11-23 08:30:16 51°15.886 2°56.183 15.9017 0.058543 0.300905 -3.020363
2011-11-23 08:30:22 51°15.892 2°56.197 15.8633 0.058543 0.30091 -3.020363
2011-11-23 08:30:26 51°15.895 2°56.207 15.9431 0.058543 0.300915 -3.020363
2011-11-23 08:30:31 51°15.9 2°56.218 15.912 0.058543 0.300915 -3.020363
2011-11-23 08:30:36 51°15.904 2°56.23 15.8964 0.058543 0.30092 -3.020363
2011-11-23 08:30:41 51°15.909 2°56.242 15.9322 0.058543 0.300925 -3.020363
2011-11-23 08:30:46 51°15.913 2°56.253 15.886 0.058543 0.300925 -3.020363
2011-11-23 08:30:51 51°15.918 2°56.265 15.937 0.058543 0.30093 -3.020363
2011-11-23 08:30:56 51°15.922 2°56.276 15.9136 0.058543 0.300935 -3.020363
2011-11-23 08:31:02 51°15.927 2°56.29 15.912 0.058543 0.300935 -3.020363
2011-11-23 08:31:06 51°15.931 2°56.3 15.8854 0.058543 0.300944 -3.020363
2011-11-23 08:31:11 51°15.936 2°56.311 15.9273 0.058543 0.300944 -3.020363
2011-11-23 08:31:16 51°15.941 2°56.323 15.9162 0.058543 0.300949 -3.020363
2011-11-23 08:31:21 51°15.946 2°56.335 15.919 0.058543 0.300954 -3.020363
2011-11-23 08:31:26 51°15.95 2°56.346 15.9379 0.058543 0.300959 -3.020363
2011-11-23 08:31:31 51°15.954 2°56.358 15.9298 0.058543 0.300959 -3.020363
2011-11-23 08:31:36 51°15.959 2°56.37 15.9124 0.058543 0.300964 -3.020363
2011-11-23 08:31:41 51°15.964 2°56.381 15.9321 0.058543 0.300969 -3.020363
2011-11-23 08:31:46 51°15.968 2°56.393 15.9238 0.058543 0.300974 -3.020363
2011-11-23 08:31:51 51°15.973 2°56.404 15.8729 0.058543 0.300979 -3.020363
2011-11-23 08:31:56 51°15.978 2°56.416 15.943 0.058543 0.300988 -3.020363
2011-11-23 08:32:01 51°15.983 2°56.428 15.9226 0.058543 0.300988 -3.020363
2011-11-23 08:32:06 51°15.987 2°56.439 15.9421 0.05844 0.300446 -3.020363
2011-11-23 08:32:11 51°15.992 2°56.451 15.9056 0.058543 0.300993 -3.020363
2011-11-23 08:32:16 51°15.997 2°56.462 15.9432 0.058543 0.300998 -3.020363
2011-11-23 08:32:21 51°16.002 2°56.474 15.889 0.05844 0.300461 -3.020363
2011-11-23 08:32:26 51°16.006 2°56.486 15.9395 0.058543 0.301008 -3.020363
2011-11-23 08:32:31 51°16.011 2°56.498 15.9301 0.058543 0.301008 -3.020363
2011-11-23 08:32:36 51°16.015 2°56.509 15.9489 0.05844 0.300471 -3.020363
2011-11-23 08:32:41 51°16.02 2°56.521 15.877 0.058543 0.301018 -3.020363
2011-11-23 08:32:46 51°16.025 2°56.533 15.9384 0.058543 0.301027 -3.020363
2011-11-23 08:32:51 51°16.029 2°56.544 15.9139 0.05844 0.30049 -3.020363
2011-11-23 08:32:56 51°16.034 2°56.555 15.9241 0.058543 0.301032 -3.020363
2011-11-23 08:33:02 51°16.039 2°56.57 15.9378 0.058543 0.301032 -3.020363
2011-11-23 08:33:06 51°16.043 2°56.579 15.9195 0.058543 0.301042 -3.020363
2011-11-23 08:33:11 51°16.047 2°56.591 15.9354 0.05844 0.3005 -3.020363
2011-11-23 08:33:17 51°16.053 2°56.605 15.9218 0.058543 0.301052 -3.020363
2011-11-23 08:33:22 51°16.057 2°56.617 15.9092 0.058543 0.301057 -3.020363
2011-11-23 08:33:26 51°16.061 2°56.627 15.9278 0.058543 0.301062 -3.020363
2011-11-23 08:33:31 51°16.065 2°56.638 15.9189 0.058543 0.301062 -3.020363
2011-11-23 08:33:36 51°16.07 2°56.65 15.9183 0.05844 0.300524 -3.020363
2011-11-23 08:33:41 51°16.075 2°56.662 15.9016 0.05844 0.300529 -3.020363
2011-11-23 08:33:46 51°16.079 2°56.674 15.9256 0.05844 0.300534 -3.020363
2011-11-23 08:33:51 51°16.083 2°56.686 15.9286 0.058543 0.301081 -3.020363
2011-11-23 08:33:56 51°16.088 2°56.698 15.9358 0.05844 0.300544 -3.020363
2011-11-23 08:34:01 51°16.092 2°56.709 15.9286 0.05844 0.300544 -3.020363
2011-11-23 08:34:06 51°16.097 2°56.721 15.9032 0.05844 0.300554 -3.020363
2011-11-23 08:34:11 51°16.101 2°56.733 15.9192 0.05844 0.300558 -3.020363
2011-11-23 08:34:16 51°16.106 2°56.745 15.9077 0.05844 0.300563 -3.020363
2011-11-23 08:34:22 51°16.111 2°56.76 15.9191 0.05844 0.300568 -3.020363
2011-11-23 08:34:26 51°16.115 2°56.77 15.9233 0.058543 0.301115 -3.020363
2011-11-23 08:34:31 51°16.119 2°56.781 15.9375 0.058543 0.301115 -3.020363
2011-11-23 08:34:36 51°16.124 2°56.793 15.9375 0.05844 0.300578 -3.020363
2011-11-23 08:34:41 51°16.128 2°56.806 15.8757 0.05844 0.300583 -3.020363
2011-11-23 08:34:46 51°16.132 2°56.819 15.9529 0.05844 0.300588 -3.020363
2011-11-23 08:34:51 51°16.137 2°56.831 15.9244 0.05844 0.300593 -3.020363
2011-11-23 08:34:56 51°16.141 2°56.843 15.9307 0.05844 0.300597 -3.020363
2011-11-23 08:35:01 51°16.146 2°56.855 15.9312 0.05844 0.300597 -3.020363
2011-11-23 08:35:06 51°16.15 2°56.868 15.8925 0.05844 0.300602 -3.020363
2011-11-23 08:35:11 51°16.155 2°56.88 15.949 0.05844 0.300607 -3.020363
2011-11-23 08:35:16 51°16.159 2°56.893 15.9357 0.05844 0.300617 -3.020363
2011-11-23 08:35:21 51°16.163 2°56.906 15.9125 0.05844 0.300622 -3.020363
2011-11-23 08:35:26 51°16.167 2°56.918 15.9366 0.05844 0.300627 -3.020363
2011-11-23 08:35:31 51°16.172 2°56.931 15.9454 0.05844 0.300627 -3.020363
2011-11-23 08:35:36 51°16.176 2°56.943 15.9427 0.05844 0.300632 -3.020363
2011-11-23 08:35:41 51°16.18 2°56.956 15.9319 0.05844 0.300637 -3.020363
2011-11-23 08:35:46 51°16.185 2°56.968 15.9471 0.058543 0.301189 -3.020363
2011-11-23 08:35:51 51°16.189 2°56.981 15.929 0.05844 0.300646 -3.020363
2011-11-23 08:35:56 51°16.193 2°56.993 15.9586 0.05844 0.300656 -3.020363
2011-11-23 08:36:02 51°16.198 2°57.008 15.9273 0.05844 0.300656 -3.020363
2011-11-23 08:36:06 51°16.202 2°57.018 15.9312 0.05844 0.300656 -3.020363
2011-11-23 08:36:11 51°16.206 2°57.03 15.9332 0.05844 0.300666 -3.020363
2011-11-23 08:36:16 51°16.211 2°57.043 15.9591 0.05844 0.300671 -3.020363
2011-11-23 08:36:21 51°16.215 2°57.055 15.8965 0.05844 0.300676 -3.020363
2011-11-23 08:36:26 51°16.22 2°57.068 15.9361 0.05844 0.30068 -3.020363
2011-11-23 08:36:31 51°16.225 2°57.08 15.9417 0.05844 0.30068 -3.020363
2011-11-23 08:36:36 51°16.229 2°57.092 15.9511 0.05844 0.300685 -3.020363
2011-11-23 08:36:41 51°16.234 2°57.104 15.9239 0.05844 0.30069 -3.020363
2011-11-23 08:36:46 51°16.239 2°57.116 15.9296 0.05844 0.300695 -3.020363
2011-11-23 08:36:51 51°16.243 2°57.129 15.9507 0.05844 0.3007 -3.020363
2011-11-23 08:36:56 51°16.248 2°57.141 15.9406 0.05844 0.300705 -3.020363
2011-11-23 08:37:02 51°16.254 2°57.155 15.9634 0.05844 0.300705 -3.020363
2011-11-23 08:37:06 51°16.257 2°57.165 15.9398 0.05844 0.30071 -3.020363
2011-11-23 08:37:11 51°16.263 2°57.177 15.934 0.05844 0.300715 -3.020363
2011-11-23 08:37:17 51°16.268 2°57.192 15.9336 0.05844 0.30072 -3.020363
2011-11-23 08:37:21 51°16.272 2°57.202 15.9304 0.05844 0.300724 -3.020363
2011-11-23 08:37:26 51°16.277 2°57.214 15.9496 0.05844 0.300734 -3.020363
2011-11-23 08:37:31 51°16.282 2°57.227 15.9412 0.05844 0.300734 -3.020363
2011-11-23 08:37:36 51°16.286 2°57.239 15.9319 0.05844 0.300734 -3.020363
2011-11-23 08:37:42 51°16.292 2°57.254 15.9091 0.05844 0.300739 -3.020363
2011-11-23 08:37:46 51°16.296 2°57.264 15.9314 0.05844 0.300744 -3.020363
2011-11-23 08:37:51 51°16.301 2°57.277 15.9576 0.05844 0.300749 -3.020363
2011-11-23 08:37:56 51°16.306 2°57.289 15.933 0.05844 0.300754 -3.020363
2011-11-23 08:38:01 51°16.311 2°57.301 15.9326 0.05844 0.300754 -3.020363
2011-11-23 08:38:06 51°16.316 2°57.313 15.9594 0.05844 0.300759 -3.020363
2011-11-23 08:38:11 51°16.32 2°57.326 15.9161 0.05844 0.300768 -3.020363
2011-11-23 08:38:16 51°16.325 2°57.338 15.9543 0.05844 0.300773 -3.020363
2011-11-23 08:38:21 51°16.329 2°57.35 15.9619 0.05844 0.300773 -3.020363
2011-11-23 08:38:26 51°16.334 2°57.362 15.94 0.05844 0.300783 -3.020363
2011-11-23 08:38:31 51°16.338 2°57.374 15.9283 0.05844 0.300783 -3.020363
2011-11-23 08:38:36 51°16.343 2°57.386 15.9538 0.05844 0.300788 -3.020363
2011-11-23 08:38:42 51°16.348 2°57.4 15.9138 0.05844 0.300793 -3.020363
2011-11-23 08:38:46 51°16.352 2°57.41 15.9558 0.05844 0.300798 -3.020363
2011-11-23 08:38:51 51°16.357 2°57.422 15.9584 0.05844 0.300803 -3.020363
2011-11-23 08:38:56 51°16.361 2°57.434 15.9236 0.05844 0.300807 -3.020363
2011-11-23 08:39:01 51°16.366 2°57.446 15.9544 0.05844 0.300807 -3.020363
2011-11-23 08:39:06 51°16.37 2°57.458 15.9301 0.05844 0.300812 -3.020363
2011-11-23 08:39:11 51°16.375 2°57.47 15.9161 0.05844 0.300817 -3.020363
2011-11-23 08:39:16 51°16.379 2°57.482 15.9324 0.05844 0.300822 -3.020363
2011-11-23 08:39:21 51°16.384 2°57.494 15.9548 0.05844 0.300827 -3.020363
2011-11-23 08:39:26 51°16.389 2°57.505 15.9469 0.05844 0.300827 -3.020363
2011-11-23 08:39:31 51°16.393 2°57.517 15.9504 0.05844 0.300827 -3.020363
2011-11-23 08:39:36 51°16.397 2°57.53 15.9326 0.05844 0.300837 -3.020363
2011-11-23 08:39:42 51°16.403 2°57.545 15.9399 0.05844 0.300837 -3.020363
2011-11-23 08:39:46 51°16.406 2°57.554 15.953 0.05844 0.300842 -3.020363
2011-11-23 08:39:51 51°16.411 2°57.567 15.9683 0.05844 0.300847 -3.020363
2011-11-23 08:39:56 51°16.415 2°57.579 15.9653 0.05844 0.300856 -3.020363
2011-11-23 08:40:01 51°16.419 2°57.591 15.927 0.05844 0.300856 -3.020363
2011-11-23 08:40:06 51°16.424 2°57.603 15.9093 0.05844 0.300861 -3.020363
2011-11-23 08:40:11 51°16.428 2°57.615 15.9597 0.058337 0.300318 -3.020363
2011-11-23 08:40:16 51°16.432 2°57.627 15.9514 0.05844 0.300871 -3.020363
2011-11-23 08:40:22 51°16.437 2°57.642 15.9425 0.05844 0.300871 -3.020363
2011-11-23 08:40:26 51°16.44 2°57.651 15.9679 0.05844 0.300876 -3.020363
2011-11-23 08:40:31 51°16.444 2°57.663 15.9442 0.05844 0.300876 -3.020363
2011-11-23 08:40:36 51°16.448 2°57.675 15.9496 0.05844 0.300881 -3.020363
2011-11-23 08:40:41 51°16.452 2°57.687 15.9688 0.05844 0.300886 -3.020363
2011-11-23 08:40:46 51°16.456 2°57.699 15.9236 0.05844 0.300891 -3.020363
2011-11-23 08:40:51 51°16.46 2°57.711 15.9462 0.05844 0.300895 -3.020363
2011-11-23 08:40:56 51°16.465 2°57.723 15.9502 0.05844 0.3009 -3.020363
2011-11-23 08:41:01 51°16.469 2°57.735 15.9503 0.05844 0.3009 -3.020363
2011-11-23 08:41:06 51°16.473 2°57.747 15.9545 0.05844 0.300905 -3.020363
2011-11-23 08:41:11 51°16.477 2°57.759 15.9522 0.05844 0.30091 -3.020363
2011-11-23 08:41:16 51°16.481 2°57.771 15.9648 0.05844 0.30091 -3.020363
2011-11-23 08:41:21 51°16.486 2°57.783 15.9629 0.05844 0.30092 -3.020363
2011-11-23 08:41:26 51°16.49 2°57.795 15.935 0.05844 0.30092 -3.020363
2011-11-23 08:41:31 51°16.494 2°57.807 15.9586 0.05844 0.30092 -3.020363
2011-11-23 08:41:36 51°16.498 2°57.819 15.959 0.05844 0.300925 -3.020363
2011-11-23 08:41:41 51°16.503 2°57.831 15.9741 0.05844 0.30093 -3.020363
2011-11-23 08:41:46 51°16.507 2°57.844 15.947 0.05844 0.300935 -3.020363
2011-11-23 08:41:51 51°16.512 2°57.856 15.977 0.05844 0.30094 -3.020363
2011-11-23 08:41:56 51°16.516 2°57.867 15.951 0.05844 0.300944 -3.020363
2011-11-23 08:42:01 51°16.52 2°57.879 15.9465 0.05844 0.300944 -3.020363
2011-11-23 08:42:06 51°16.524 2°57.89 15.9732 0.05844 0.300944 -3.020363
2011-11-23 08:42:11 51°16.528 2°57.901 15.9735 0.05844 0.300949 -3.020363
2011-11-23 08:42:16 51°16.532 2°57.912 15.9691 0.05844 0.300954 -3.020363
2011-11-23 08:42:21 51°16.536 2°57.922 15.9628 0.05844 0.300959 -3.020363
2011-11-23 08:42:26 51°16.541 2°57.933 15.9667 0.05844 0.300964 -3.020363
2011-11-23 08:42:31 51°16.545 2°57.943 15.9669 0.05844 0.300964 -3.020363
2011-11-23 08:42:36 51°16.549 2°57.954 15.9702 0.05844 0.300969 -3.020363
2011-11-23 08:42:41 51°16.553 2°57.964 15.975 0.05844 0.300969 -3.020363
2011-11-23 08:42:46 51°16.557 2°57.974 15.9693 0.05844 0.300974 -3.020363
2011-11-23 08:42:51 51°16.561 2°57.984 15.971 0.058337 0.300436 -3.020363
2011-11-23 08:42:56 51°16.565 2°57.995 15.9624 0.05844 0.300984 -3.020363
2011-11-23 08:43:01 51°16.569 2°58.004 15.9737 0.05844 0.300984 -3.020363
2011-11-23 08:43:06 51°16.573 2°58.014 15.9534 0.05844 0.300988 -3.020363
2011-11-23 08:43:11 51°16.577 2°58.025 15.9769 0.058337 0.300445 -3.020363
2011-11-23 08:43:16 51°16.581 2°58.034 15.9606 0.058337 0.30045 -3.020363
2011-11-23 08:43:21 51°16.585 2°58.044 15.9812 0.05844 0.300998 -3.020363
2011-11-23 08:43:26 51°16.588 2°58.055 15.9699 0.05844 0.301003 -3.020363
2011-11-23 08:43:31 51°16.592 2°58.064 15.98 0.05844 0.301003 -3.020363
2011-11-23 08:43:36 51°16.596 2°58.075 15.9854 0.05844 0.301008 -3.020363
2011-11-23 08:43:41 51°16.6 2°58.085 15.9881 0.05844 0.301013 -3.020363
2011-11-23 08:43:46 51°16.603 2°58.095 15.9937 0.05844 0.301018 -3.020363
2011-11-23 08:43:51 51°16.607 2°58.104 15.9978 0.058337 0.300475 -3.020363
2011-11-23 08:43:56 51°16.611 2°58.115 15.9447 0.05844 0.301028 -3.020363
2011-11-23 08:44:01 51°16.614 2°58.125 15.992 0.05844 0.301028 -3.020363
2011-11-23 08:44:06 51°16.618 2°58.137 15.9687 0.05844 0.301033 -3.020363
2011-11-23 08:44:11 51°16.623 2°58.147 15.988 0.058337 0.300494 -3.020363
2011-11-23 08:44:16 51°16.626 2°58.158 15.976 0.05844 0.301042 -3.020363
2011-11-23 08:44:21 51°16.63 2°58.169 16.0013 0.058337 0.300499 -3.020363
2011-11-23 08:44:26 51°16.634 2°58.18 15.9738 0.058337 0.300504 -3.020363
2011-11-23 08:44:31 51°16.638 2°58.19 15.9664 0.058337 0.300504 -3.020363
2011-11-23 08:44:36 51°16.642 2°58.201 15.9959 0.058337 0.300509 -3.020363
2011-11-23 08:44:41 51°16.646 2°58.212 15.9644 0.05844 0.301057 -3.020363
2011-11-23 08:44:46 51°16.65 2°58.224 15.9991 0.058337 0.300519 -3.020363
2011-11-23 08:44:51 51°16.654 2°58.235 15.9759 0.058337 0.300524 -3.020363
2011-11-23 08:44:56 51°16.658 2°58.245 16.0084 0.058337 0.300528 -3.020363
2011-11-23 08:45:01 51°16.662 2°58.256 15.9979 0.058337 0.300528 -3.020363
2011-11-23 08:45:06 51°16.665 2°58.268 15.9886 0.058337 0.300528 -3.020363
2011-11-23 08:45:11 51°16.669 2°58.279 15.9895 0.058337 0.300533 -3.020363
2011-11-23 08:45:16 51°16.673 2°58.29 15.9834 0.05844 0.301086 -3.020363
2011-11-23 08:45:21 51°16.677 2°58.302 16.0037 0.058337 0.300543 -3.020363
2011-11-23 08:45:26 51°16.681 2°58.313 15.981 0.058337 0.300548 -3.020363
2011-11-23 08:45:31 51°16.685 2°58.324 16.0016 0.058337 0.300548 -3.020363
2011-11-23 08:45:36 51°16.689 2°58.335 15.9821 0.058337 0.300553 -3.020363
2011-11-23 08:45:41 51°16.693 2°58.347 15.9973 0.058337 0.300558 -3.020363
2011-11-23 08:45:46 51°16.697 2°58.358 15.9904 0.058337 0.300563 -3.020363
2011-11-23 08:45:51 51°16.701 2°58.369 15.9998 0.058337 0.300568 -3.020363
2011-11-23 08:45:56 51°16.705 2°58.38 15.9884 0.05844 0.301116 -3.020363
2011-11-23 08:46:01 51°16.709 2°58.39 15.9907 0.05844 0.301116 -3.020363
2011-11-23 08:46:06 51°16.712 2°58.402 16.0119 0.058337 0.300577 -3.020363
2011-11-23 08:46:11 51°16.716 2°58.414 16.0048 0.058337 0.300577 -3.020363
2011-11-23 08:46:16 51°16.72 2°58.425 15.9941 0.058337 0.300582 -3.020363
2011-11-23 08:46:21 51°16.723 2°58.436 15.9924 0.058337 0.300587 -3.020363
2011-11-23 08:46:26 51°16.728 2°58.447 15.9869 0.058337 0.300592 -3.020363
2011-11-23 08:46:30 51°16.731 2°58.456 15.9896 0.058337 0.300592 -3.020363
2011-11-23 08:46:36 51°16.735 2°58.469 16.0012 0.058337 0.300597 -3.020363
2011-11-23 08:46:41 51°16.739 2°58.48 16.0095 0.058337 0.300602 -3.020363
2011-11-23 08:46:46 51°16.744 2°58.491 15.9788 0.058337 0.300602 -3.020363
2011-11-23 08:46:50 51°16.747 2°58.499 16.0191 0.058337 0.300607 -3.020363
2011-11-23 08:46:56 51°16.751 2°58.512 15.9921 0.058337 0.300612 -3.020363
2011-11-23 08:47:01 51°16.755 2°58.522 16.0127 0.058337 0.300612 -3.020363
2011-11-23 08:47:06 51°16.759 2°58.533 16.0046 0.058337 0.300612 -3.020363
2011-11-23 08:47:10 51°16.762 2°58.542 15.9925 0.058337 0.300616 -3.020363
2011-11-23 08:47:16 51°16.767 2°58.554 16.0116 0.058337 0.300621 -3.020363
2011-11-23 08:47:21 51°16.771 2°58.565 15.9987 0.058337 0.300621 -3.020363
2011-11-23 08:47:26 51°16.775 2°58.576 16.007 0.058337 0.300626 -3.020363
2011-11-23 08:47:30 51°16.778 2°58.585 16.0128 0.058337 0.300626 -3.020363
2011-11-23 08:47:36 51°16.782 2°58.598 16.0142 0.058337 0.300631 -3.020363
2011-11-23 08:47:41 51°16.786 2°58.609 15.9911 0.058337 0.300636 -3.020363
2011-11-23 08:47:46 51°16.79 2°58.62 16.0134 0.058337 0.300636 -3.020363
2011-11-23 08:47:51 51°16.793 2°58.631 16.0119 0.058337 0.300641 -3.020363
2011-11-23 08:47:56 51°16.797 2°58.642 16.0204 0.058337 0.300646 -3.020363
2011-11-23 08:48:01 51°16.801 2°58.653 15.9775 0.058337 0.300646 -3.020363
2011-11-23 08:48:06 51°16.804 2°58.664 16.0113 0.058337 0.300651 -3.020363
2011-11-23 08:48:10 51°16.807 2°58.673 15.9763 0.058337 0.300651 -3.020363
2011-11-23 08:48:16 51°16.811 2°58.686 16.0199 0.058337 0.300656 -3.020363
2011-11-23 08:48:21 51°16.814 2°58.698 15.9856 0.058337 0.300661 -3.020363
2011-11-23 08:48:26 51°16.817 2°58.709 15.9953 0.058337 0.300661 -3.020363
2011-11-23 08:48:30 51°16.82 2°58.718 16.0229 0.058337 0.300661 -3.020363
2011-11-23 08:48:36 51°16.824 2°58.731 16.0062 0.058337 0.300661 -3.020363
2011-11-23 08:48:41 51°16.827 2°58.743 16.0216 0.058337 0.30067 -3.020363
2011-11-23 08:48:46 51°16.831 2°58.754 15.9934 0.058337 0.30067 -3.020363
2011-11-23 08:48:50 51°16.834 2°58.763 16.0206 0.058337 0.300675 -3.020363
2011-11-23 08:48:56 51°16.838 2°58.777 16.006 0.058337 0.300675 -3.020363
2011-11-23 08:49:01 51°16.841 2°58.788 16.0026 0.058337 0.300675 -3.020363
2011-11-23 08:49:06 51°16.844 2°58.8 16.0241 0.058337 0.30068 -3.020363
2011-11-23 08:49:10 51°16.846 2°58.808 16.0104 0.058337 0.30068 -3.020363
2011-11-23 08:49:16 51°16.85 2°58.822 16.0201 0.058337 0.300685 -3.020363
2011-11-23 08:49:21 51°16.853 2°58.834 16.0087 0.058337 0.30069 -3.020363
2011-11-23 08:49:26 51°16.857 2°58.845 16.028 0.058337 0.300695 -3.020363
2011-11-23 08:49:30 51°16.859 2°58.854 16.0089 0.058337 0.300695 -3.020363
2011-11-23 08:49:36 51°16.863 2°58.868 16.0087 0.058337 0.300695 -3.020363
2011-11-23 08:49:41 51°16.866 2°58.879 16.0206 0.058337 0.300695 -3.020363
2011-11-23 08:49:46 51°16.87 2°58.89 16.028 0.058337 0.3007 -3.020363
2011-11-23 08:49:50 51°16.873 2°58.899 16.025 0.058337 0.300705 -3.020363
2011-11-23 08:49:56 51°16.877 2°58.913 16.0114 0.058337 0.300705 -3.020363
2011-11-23 08:50:01 51°16.88 2°58.924 16.0208 0.058337 0.300705 -3.020363
2011-11-23 08:50:06 51°16.883 2°58.935 16.0239 0.058337 0.300705 -3.020363
2011-11-23 08:50:10 51°16.886 2°58.944 16.0174 0.058337 0.300705 -3.020363
2011-11-23 08:50:16 51°16.89 2°58.958 16.0217 0.058337 0.300709 -3.020363
2011-11-23 08:50:21 51°16.893 2°58.969 15.9966 0.058337 0.300709 -3.020363
2011-11-23 08:50:26 51°16.897 2°58.98 16.0317 0.058337 0.300714 -3.020363
2011-11-23 08:50:31 51°16.9 2°58.992 15.9997 0.058337 0.300714 -3.020363
2011-11-23 08:50:36 51°16.904 2°59.003 16.0104 0.058337 0.300714 -3.020363
2011-11-23 08:50:41 51°16.907 2°59.014 16.0197 0.058337 0.300714 -3.020363
2011-11-23 08:50:46 51°16.911 2°59.025 16.0104 0.058337 0.300719 -3.020363
2011-11-23 08:50:50 51°16.914 2°59.034 16.0316 0.058337 0.300719 -3.020363
2011-11-23 08:50:56 51°16.918 2°59.048 16.007 0.058337 0.300724 -3.020363
2011-11-23 08:51:01 51°16.921 2°59.059 16.0246 0.058337 0.300724 -3.020363
2011-11-23 08:51:06 51°16.925 2°59.07 16.0125 0.058337 0.300729 -3.020363
2011-11-23 08:51:10 51°16.928 2°59.079 16.0312 0.058337 0.300724 -3.020363
2011-11-23 08:51:16 51°16.933 2°59.092 16.0297 0.058337 0.300734 -3.020363
2011-11-23 08:51:21 51°16.936 2°59.103 16.0319 0.058337 0.300734 -3.020363
2011-11-23 08:51:26 51°16.94 2°59.114 16.0127 0.058337 0.300734 -3.020363
2011-11-23 08:51:30 51°16.943 2°59.123 16.0178 0.058337 0.300734 -3.020363
2011-11-23 08:51:36 51°16.948 2°59.136 16.0302 0.058337 0.300734 -3.020363
2011-11-23 08:51:41 51°16.952 2°59.147 16.0086 0.058337 0.300739 -3.020363
2011-11-23 08:51:46 51°16.956 2°59.158 16.048 0.058337 0.300739 -3.020363
2011-11-23 08:51:50 51°16.958 2°59.167 16.0324 0.058337 0.300744 -3.020363
2011-11-23 08:51:56 51°16.963 2°59.181 16.0388 0.058337 0.300744 -3.020363
2011-11-23 08:52:01 51°16.967 2°59.192 16.0164 0.058337 0.300744 -3.020363
2011-11-23 08:52:06 51°16.97 2°59.203 16.053 0.058337 0.300744 -3.020363
2011-11-23 08:52:11 51°16.974 2°59.214 15.9961 0.058337 0.300749 -3.020363
2011-11-23 08:52:16 51°16.978 2°59.225 16 0.058337 0.300749 -3.020363
2011-11-23 08:52:21 51°16.981 2°59.237 16.0498 0.058337 0.300754 -3.020363
2011-11-23 08:52:26 51°16.985 2°59.248 16.0147 0.058337 0.300758 -3.020363
2011-11-23 08:52:30 51°16.988 2°59.257 16.0348 0.058337 0.300758 -3.020363
2011-11-23 08:52:36 51°16.992 2°59.27 16.0126 0.058337 0.300758 -3.020363
2011-11-23 08:52:41 51°16.996 2°59.282 16.0082 0.058337 0.300758 -3.020363
2011-11-23 08:52:46 51°17 2°59.293 16.0466 0.058337 0.300758 -3.020363
2011-11-23 08:52:50 51°17.003 2°59.301 16.0103 0.058337 0.300763 -3.020363
2011-11-23 08:52:56 51°17.007 2°59.315 16.047 0.058337 0.300763 -3.020363
2011-11-23 08:53:01 51°17.011 2°59.326 16.0099 0.058337 0.300763 -3.020363
2011-11-23 08:53:06 51°17.015 2°59.337 16.0377 0.058337 0.300763 -3.020363
2011-11-23 08:53:10 51°17.018 2°59.346 16.0197 0.058337 0.300768 -3.020363
2011-11-23 08:53:16 51°17.022 2°59.36 16.0262 0.058337 0.300773 -3.020363
2011-11-23 08:53:21 51°17.026 2°59.371 16.0482 0.058337 0.300773 -3.020363
2011-11-23 08:53:26 51°17.029 2°59.382 16.0142 0.058337 0.300773 -3.020363
2011-11-23 08:53:30 51°17.033 2°59.392 16.0048 0.058337 0.300773 -3.020363
2011-11-23 08:53:36 51°17.037 2°59.405 16.0482 0.058337 0.300778 -3.020363
2011-11-23 08:53:41 51°17.04 2°59.416 16.0294 0.058337 0.300783 -3.020363
2011-11-23 08:53:46 51°17.044 2°59.428 16.0234 0.058337 0.300783 -3.020363
2011-11-23 08:53:50 51°17.047 2°59.437 16.0365 0.058337 0.300783 -3.020363
2011-11-23 08:53:56 51°17.052 2°59.451 16.0521 0.058337 0.300788 -3.020363
2011-11-23 08:54:01 51°17.055 2°59.462 16.0147 0.058337 0.300788 -3.020363
2011-11-23 08:54:06 51°17.059 2°59.473 16.0478 0.058337 0.300788 -3.020363
2011-11-23 08:54:11 51°17.063 2°59.484 16.0325 0.058337 0.300788 -3.020363
2011-11-23 08:54:16 51°17.066 2°59.496 16.0481 0.058337 0.300793 -3.020363
2011-11-23 08:54:21 51°17.07 2°59.508 16.0289 0.058337 0.300798 -3.020363
2011-11-23 08:54:26 51°17.074 2°59.519 16.0323 0.058337 0.300798 -3.020363
2011-11-23 08:54:30 51°17.076 2°59.528 16.044 0.058337 0.300798 -3.020363
2011-11-23 08:54:36 51°17.081 2°59.542 16.0481 0.058337 0.300798 -3.020363
2011-11-23 08:54:41 51°17.084 2°59.554 16.0321 0.058337 0.300803 -3.020363
2011-11-23 08:54:46 51°17.087 2°59.566 16.0481 0.058337 0.300803 -3.020363
2011-11-23 08:54:51 51°17.091 2°59.577 16.058 0.058337 0.300807 -3.020363
2011-11-23 08:54:56 51°17.094 2°59.589 16.0278 0.058337 0.300812 -3.020363
2011-11-23 08:55:01 51°17.097 2°59.601 16.0444 0.058337 0.300812 -3.020363
2011-11-23 08:55:06 51°17.101 2°59.612 16.0458 0.058337 0.300812 -3.020363
2011-11-23 08:55:10 51°17.103 2°59.622 16.0354 0.058337 0.300812 -3.020363
2011-11-23 08:55:16 51°17.108 2°59.636 16.0522 0.058337 0.300817 -3.020363
2011-11-23 08:55:21 51°17.111 2°59.648 16.039 0.058235 0.300273 -3.020363
2011-11-23 08:55:26 51°17.114 2°59.659 16.0533 0.058337 0.300822 -3.020363
2011-11-23 08:55:30 51°17.117 2°59.669 16.0438 0.058337 0.300822 -3.020363
2011-11-23 08:55:36 51°17.121 2°59.683 16.0492 0.058337 0.300822 -3.020363
2011-11-23 08:55:41 51°17.124 2°59.694 16.0664 0.058337 0.300827 -3.020363
2011-11-23 08:55:46 51°17.127 2°59.706 16.0293 0.058337 0.300827 -3.020363
2011-11-23 08:55:50 51°17.13 2°59.715 16.0477 0.058235 0.300288 -3.020363
2011-11-23 08:55:56 51°17.134 2°59.729 16.0602 0.058337 0.300832 -3.020363
2011-11-23 08:56:01 51°17.137 2°59.74 16.0404 0.058337 0.300832 -3.020363
2011-11-23 08:56:06 51°17.141 2°59.752 16.0601 0.058337 0.300837 -3.020363
2011-11-23 08:56:11 51°17.144 2°59.763 16.0484 0.058337 0.300837 -3.020363
2011-11-23 08:56:16 51°17.148 2°59.775 16.0512 0.058337 0.300842 -3.020363
2011-11-23 08:56:21 51°17.151 2°59.786 16.0508 0.058337 0.300842 -3.020363
2011-11-23 08:56:26 51°17.154 2°59.797 16.0467 0.058337 0.300847 -3.020363
2011-11-23 08:56:30 51°17.157 2°59.806 16.0632 0.058337 0.300847 -3.020363
2011-11-23 08:56:36 51°17.161 2°59.82 16.0438 0.058337 0.300847 -3.020363
2011-11-23 08:56:41 51°17.165 2°59.831 16.0764 0.058235 0.300308 -3.020363
2011-11-23 08:56:46 51°17.168 2°59.842 16.0511 0.058337 0.300856 -3.020363
2011-11-23 08:56:51 51°17.172 2°59.853 16.0703 0.058337 0.300856 -3.020363
2011-11-23 08:56:56 51°17.175 2°59.865 16.0555 0.058235 0.300313 -3.020363
2011-11-23 08:57:01 51°17.179 2°59.876 16.0711 0.058235 0.300313 -3.020363
2011-11-23 08:57:06 51°17.182 2°59.887 16.0702 0.058337 0.300861 -3.020363
2011-11-23 08:57:11 51°17.186 2°59.899 16.0825 0.058235 0.300322 -3.020363
2011-11-23 08:57:16 51°17.189 2°59.91 16.0756 0.058337 0.300866 -3.020363
2011-11-23 08:57:21 51°17.193 2°59.921 16.0608 0.058235 0.300322 -3.020363
2011-11-23 08:57:26 51°17.196 2°59.932 16.0714 0.058235 0.300327 -3.020363
2011-11-23 08:57:30 51°17.199 2°59.941 16.0863 0.058235 0.300327 -3.020363
2011-11-23 08:57:36 51°17.203 2°59.955 16.0525 0.058337 0.300871 -3.020363
2011-11-23 08:57:41 51°17.207 2°59.966 16.0811 0.058235 0.300327 -3.020363
2011-11-23 08:57:46 51°17.211 2°59.977 16.039 0.058235 0.300332 -3.020363
2011-11-23 08:57:50 51°17.214 2°59.986 16.0787 0.058337 0.300881 -3.020363
2011-11-23 08:57:56 51°17.218 2°59.999 16.0719 0.058235 0.300337 -3.020363
2011-11-23 08:58:01 51°17.222 3°0.01 16.0841 0.058235 0.300337 -3.020363
2011-11-23 08:58:06 51°17.225 3°0.021 16.0589 0.058337 0.300886 -3.020363
2011-11-23 08:58:10 51°17.229 3°0.03 16.0691 0.058337 0.300886 -3.020363
2011-11-23 08:58:16 51°17.233 3°0.043 16.0819 0.058337 0.300891 -3.020363
2011-11-23 08:58:21 51°17.237 3°0.054 16.0883 0.058337 0.300891 -3.020363
2011-11-23 08:58:26 51°17.24 3°0.065 16.072 0.058235 0.300352 -3.020363
2011-11-23 08:58:30 51°17.244 3°0.074 16.072 0.058235 0.300352 -3.020363
2011-11-23 08:58:36 51°17.248 3°0.087 16.0519 0.058337 0.300896 -3.020363
2011-11-23 08:58:41 51°17.252 3°0.099 16.0912 0.058235 0.300357 -3.020363
2011-11-23 08:58:46 51°17.256 3°0.11 16.0675 0.058235 0.300362 -3.020363
2011-11-23 08:58:50 51°17.259 3°0.118 16.0763 0.058235 0.300362 -3.020363
2011-11-23 08:58:56 51°17.263 3°0.132 16.0826 0.058235 0.300362 -3.020363
2011-11-23 08:59:01 51°17.267 3°0.143 16.0619 0.058235 0.300362 -3.020363
2011-11-23 08:59:06 51°17.271 3°0.154 16.0868 0.058337 0.30091 -3.020363
2011-11-23 08:59:10 51°17.274 3°0.163 16.0843 0.058235 0.300371 -3.020363
2011-11-23 08:59:16 51°17.278 3°0.177 16.0767 0.058337 0.300915 -3.020363
2011-11-23 08:59:21 51°17.282 3°0.188 16.0828 0.058235 0.300376 -3.020363
2011-11-23 08:59:26 51°17.286 3°0.199 16.076 0.058235 0.300381 -3.020363
2011-11-23 08:59:31 51°17.289 3°0.21 16.0712 0.058235 0.300381 -3.020363
2011-11-23 08:59:36 51°17.293 3°0.222 16.0739 0.058337 0.300925 -3.020363
2011-11-23 08:59:41 51°17.297 3°0.233 16.0821 0.058235 0.300386 -3.020363
2011-11-23 08:59:46 51°17.3 3°0.244 16.0741 0.058337 0.30093 -3.020363
2011-11-23 08:59:50 51°17.303 3°0.253 16.0808 0.058337 0.30093 -3.020363
2011-11-23 08:59:56 51°17.307 3°0.267 16.0722 0.058337 0.300935 -3.020363
2011-11-23 09:00:01 51°17.311 3°0.279 16.1106 0.058337 0.300935 -3.020363
2011-11-23 09:00:06 51°17.315 3°0.29 16.0918 0.058235 0.300396 -3.020363
2011-11-23 09:00:10 51°17.318 3°0.299 16.1067 0.058235 0.300396 -3.020363
2011-11-23 09:00:16 51°17.322 3°0.313 16.1019 0.058235 0.300396 -3.020363
2011-11-23 09:00:21 51°17.325 3°0.324 16.1 0.058235 0.300401 -3.020363
2011-11-23 09:00:26 51°17.329 3°0.336 16.1079 0.058235 0.300406 -3.020363
2011-11-23 09:00:30 51°17.332 3°0.345 16.0992 0.058235 0.300406 -3.020363
2011-11-23 09:00:36 51°17.336 3°0.359 16.0936 0.058235 0.300406 -3.020363
2011-11-23 09:00:41 51°17.34 3°0.37 16.1048 0.058235 0.300406 -3.020363
2011-11-23 09:00:46 51°17.344 3°0.381 16.1059 0.058235 0.30041 -3.020363
2011-11-23 09:00:50 51°17.347 3°0.39 16.1085 0.058337 0.300959 -3.020363
2011-11-23 09:00:56 51°17.351 3°0.404 16.089 0.058235 0.300415 -3.020363
2011-11-23 09:01:01 51°17.355 3°0.415 16.1087 0.058235 0.300415 -3.020363
2011-11-23 09:01:06 51°17.359 3°0.426 16.0967 0.058235 0.300415 -3.020363
2011-11-23 09:01:11 51°17.363 3°0.438 16.1106 0.058235 0.300415 -3.020363
2011-11-23 09:01:16 51°17.367 3°0.449 16.1116 0.058235 0.30042 -3.020363
2011-11-23 09:01:21 51°17.371 3°0.46 16.0929 0.058235 0.300425 -3.020363
2011-11-23 09:01:26 51°17.375 3°0.471 16.1142 0.058337 0.300969 -3.020363
2011-11-23 09:01:30 51°17.378 3°0.48 16.0968 0.058337 0.300969 -3.020363
2011-11-23 09:01:36 51°17.383 3°0.493 16.0997 0.058235 0.30043 -3.020363
2011-11-23 09:01:41 51°17.388 3°0.504 16.1043 0.058235 0.30043 -3.020363
2011-11-23 09:01:46 51°17.392 3°0.515 16.0984 0.058235 0.30043 -3.020363
2011-11-23 09:01:50 51°17.395 3°0.524 16.1016 0.058235 0.300435 -3.020363
2011-11-23 09:01:56 51°17.4 3°0.537 16.1157 0.058235 0.30044 -3.020363
2011-11-23 09:02:01 51°17.405 3°0.548 16.0968 0.058235 0.30044 -3.020363
2011-11-23 09:02:06 51°17.409 3°0.559 16.1188 0.058235 0.30044 -3.020363
2011-11-23 09:02:10 51°17.412 3°0.568 16.1039 0.058235 0.30044 -3.020363
2011-11-23 09:02:16 51°17.418 3°0.581 16.0992 0.058235 0.300445 -3.020363
2011-11-23 09:02:21 51°17.422 3°0.592 16.0938 0.058235 0.300445 -3.020363
2011-11-23 09:02:26 51°17.426 3°0.604 16.1215 0.058235 0.300445 -3.020363
2011-11-23 09:02:30 51°17.43 3°0.612 16.1059 0.058235 0.300445 -3.020363
2011-11-23 09:02:36 51°17.435 3°0.626 16.1137 0.058337 0.300994 -3.020363
2011-11-23 09:02:41 51°17.439 3°0.637 16.1067 0.058235 0.30045 -3.020363
2011-11-23 09:02:46 51°17.443 3°0.648 16.093 0.058235 0.300455 -3.020363
2011-11-23 09:02:50 51°17.447 3°0.657 16.0999 0.058337 0.300999 -3.020363
2011-11-23 09:02:56 51°17.452 3°0.67 16.1233 0.058235 0.300455 -3.020363
2011-11-23 09:03:01 51°17.456 3°0.681 16.1176 0.058235 0.300455 -3.020363
2011-11-23 09:03:06 51°17.46 3°0.692 16.1172 0.058235 0.300459 -3.020363
2011-11-23 09:03:10 51°17.464 3°0.701 16.1142 0.058235 0.300459 -3.020363
2011-11-23 09:03:16 51°17.469 3°0.715 16.0909 0.058235 0.300464 -3.020363
2011-11-23 09:03:21 51°17.473 3°0.726 16.1355 0.058235 0.300464 -3.020363
2011-11-23 09:03:26 51°17.477 3°0.737 16.0991 0.058235 0.300469 -3.020363
2011-11-23 09:03:31 51°17.481 3°0.749 16.1136 0.058235 0.300469 -3.020363
2011-11-23 09:03:36 51°17.486 3°0.759 16.1194 0.058235 0.300474 -3.020363
2011-11-23 09:03:41 51°17.49 3°0.771 16.1096 0.058337 0.301018 -3.020363
2011-11-23 09:03:46 51°17.494 3°0.782 16.124 0.058235 0.300474 -3.020363
2011-11-23 09:03:50 51°17.497 3°0.791 16.1201 0.058235 0.300479 -3.020363
2011-11-23 09:03:56 51°17.502 3°0.804 16.1035 0.058337 0.301023 -3.020363
2011-11-23 09:04:01 51°17.506 3°0.815 16.1168 0.058337 0.301023 -3.020363
2011-11-23 09:04:06 51°17.51 3°0.826 16.1232 0.058235 0.300484 -3.020363
2011-11-23 09:04:10 51°17.513 3°0.834 16.1022 0.058235 0.300484 -3.020363
2011-11-23 09:04:16 51°17.518 3°0.847 16.1019 0.058235 0.300489 -3.020363
2011-11-23 09:04:21 51°17.522 3°0.858 16.1278 0.058235 0.300489 -3.020363
2011-11-23 09:04:26 51°17.526 3°0.869 16.1255 0.058235 0.300489 -3.020363
2011-11-23 09:04:30 51°17.529 3°0.878 16.1239 0.058235 0.300489 -3.020363
2011-11-23 09:04:36 51°17.534 3°0.891 16.0932 0.058235 0.300489 -3.020363
2011-11-23 09:04:41 51°17.538 3°0.901 16.1166 0.058235 0.300494 -3.020363
2011-11-23 09:04:46 51°17.541 3°0.912 16.1329 0.058235 0.300499 -3.020363
2011-11-23 09:04:50 51°17.544 3°0.921 16.1264 0.058235 0.300499 -3.020363
2011-11-23 09:04:56 51°17.549 3°0.933 16.0909 0.058235 0.300504 -3.020363
2011-11-23 09:05:01 51°17.553 3°0.944 16.1271 0.058235 0.300504 -3.020363
2011-11-23 09:05:06 51°17.556 3°0.955 16.1281 0.058235 0.300504 -3.020363
2011-11-23 09:05:10 51°17.559 3°0.964 16.1277 0.058235 0.300508 -3.020363
2011-11-23 09:05:16 51°17.564 3°0.977 16.1117 0.058235 0.300508 -3.020363
2011-11-23 09:05:21 51°17.567 3°0.987 16.1125 0.058235 0.300508 -3.020363
2011-11-23 09:05:26 51°17.571 3°0.998 16.1371 0.058235 0.300513 -3.020363
2011-11-23 09:05:31 51°17.574 3°1.009 16.1127 0.058235 0.300513 -3.020363